<?xml version="1.0" encoding="UTF-8" standalone="yes"?>
<gpx
 xmlns="http://www.topografix.com/GPX/1/1"
 creator="OziExplorer Version 3956f - http://www.oziexplorer.com"
 version="1.1"
 xmlns:xsi="http://www.w3.org/2001/XMLSchema-instance"
 xsi:schemaLocation="http://www.topografix.com/GPX/1/1 http://www.topografix.com/GPX/1/1/gpx.xsd">
<metadata>
 <time>2021-11-09T07:09:58Z</time>
 <bounds minlat="31.698010" minlon="35.299070" maxlat="31.801022" maxlon="35.459590"/>
</metadata>
<wpt lat="31.7474362" lon="35.3002409">
 <time>2019-04-01T08:32:32.071Z</time>
 <name>1-Start</name>
 <sym>Bike Trail</sym>
</wpt>
<wpt lat="31.7053236" lon="35.3332535">
 <time>2019-04-01T08:33:43.038Z</time>
 <name>2-Tatspit1</name>
 <sym>Flag, Blue</sym>
</wpt>
<wpt lat="31.7049224" lon="35.3311184">
 <time>2019-04-01T08:34:15.757Z</time>
 <name>3-MarSaba</name>
 <sym>Flag, Blue</sym>
</wpt>
<wpt lat="31.7171169" lon="35.4254678">
 <time>2019-04-01T08:37:27.039Z</time>
 <name>4-Tatspit2</name>
 <sym>Flag, Blue</sym>
</wpt>
<wpt lat="31.7045869" lon="35.4451552">
 <time>2019-04-01T08:38:12.824Z</time>
 <name>5Tatspit3</name>
 <sym>Flag, Blue</sym>
</wpt>
<wpt lat="31.7289469" lon="35.4492322">
 <time>2019-04-01T08:38:35.738Z</time>
 <name>6-Tatspit4</name>
 <sym>Flag, Blue</sym>
</wpt>
<wpt lat="31.7709618" lon="35.4520432">
 <time>2019-04-01T08:39:06.993Z</time>
 <name>7-Tatspit5</name>
 <sym>Flag, Blue</sym>
</wpt>
<wpt lat="31.8010217" lon="35.4535613">
 <time>2019-04-01T08:41:08.056Z</time>
 <name>8-Finish</name>
 <sym>Pin, Red</sym>
</wpt>
<trk>
 <name>MarSaba_New</name>
 <desc>MarSaba_New</desc>
<trkseg>
<trkpt lat="31.7474200" lon="35.3002600">
<ele>516.419983</ele>
<time>2021-11-09T09:08:23.165Z</time>
</trkpt>
<trkpt lat="31.7472000" lon="35.3012500">
<ele>524.919983</ele>
<time>2021-11-09T09:08:23.165Z</time>
</trkpt>
<trkpt lat="31.7469500" lon="35.3010800">
<ele>523.910034</ele>
<time>2021-11-09T09:08:23.165Z</time>
</trkpt>
<trkpt lat="31.7463200" lon="35.3003800">
<ele>514.410034</ele>
<time>2021-11-09T09:08:23.165Z</time>
</trkpt>
<trkpt lat="31.7451800" lon="35.2994400">
<ele>505.729980</ele>
<time>2021-11-09T09:08:23.165Z</time>
</trkpt>
<trkpt lat="31.7450100" lon="35.2991000">
<ele>494.209991</ele>
<time>2021-11-09T09:08:23.165Z</time>
</trkpt>
<trkpt lat="31.7449200" lon="35.2990700">
<ele>491.949982</ele>
<time>2021-11-09T09:08:23.165Z</time>
</trkpt>
<trkpt lat="31.7447400" lon="35.2995600">
<ele>490.250000</ele>
<time>2021-11-09T09:08:23.165Z</time>
</trkpt>
<trkpt lat="31.7444600" lon="35.2998800">
<ele>487.700012</ele>
<time>2021-11-09T09:08:23.165Z</time>
</trkpt>
<trkpt lat="31.7443200" lon="35.3001400">
<ele>489.779999</ele>
<time>2021-11-09T09:08:23.165Z</time>
</trkpt>
<trkpt lat="31.7442900" lon="35.3007200">
<ele>495.329987</ele>
<time>2021-11-09T09:08:23.165Z</time>
</trkpt>
<trkpt lat="31.7441900" lon="35.3011400">
<ele>494.399994</ele>
<time>2021-11-09T09:08:23.165Z</time>
</trkpt>
<trkpt lat="31.7441500" lon="35.3015800">
<ele>498.570007</ele>
<time>2021-11-09T09:08:23.165Z</time>
</trkpt>
<trkpt lat="31.7437100" lon="35.3023400">
<ele>493.410004</ele>
<time>2021-11-09T09:08:23.165Z</time>
</trkpt>
<trkpt lat="31.7427500" lon="35.3032500">
<ele>492.700012</ele>
<time>2021-11-09T09:08:23.165Z</time>
</trkpt>
<trkpt lat="31.7428600" lon="35.3044000">
<ele>497.949982</ele>
<time>2021-11-09T09:08:23.165Z</time>
</trkpt>
<trkpt lat="31.7426200" lon="35.3053700">
<ele>505.660004</ele>
<time>2021-11-09T09:08:23.165Z</time>
</trkpt>
<trkpt lat="31.7426300" lon="35.3062900">
<ele>507.940002</ele>
<time>2021-11-09T09:08:23.165Z</time>
</trkpt>
<trkpt lat="31.7425300" lon="35.3067100">
<ele>505.450012</ele>
<time>2021-11-09T09:08:23.165Z</time>
</trkpt>
<trkpt lat="31.7421600" lon="35.3072000">
<ele>501.100006</ele>
<time>2021-11-09T09:08:23.165Z</time>
</trkpt>
<trkpt lat="31.7419900" lon="35.3078400">
<ele>490.430023</ele>
<time>2021-11-09T09:08:23.165Z</time>
</trkpt>
<trkpt lat="31.7420000" lon="35.3082000">
<ele>485.420013</ele>
<time>2021-11-09T09:08:23.165Z</time>
</trkpt>
<trkpt lat="31.7422500" lon="35.3089400">
<ele>480.800018</ele>
<time>2021-11-09T09:08:23.165Z</time>
</trkpt>
<trkpt lat="31.7423800" lon="35.3097300">
<ele>478.000000</ele>
<time>2021-11-09T09:08:23.165Z</time>
</trkpt>
<trkpt lat="31.7421100" lon="35.3108800">
<ele>470.329987</ele>
<time>2021-11-09T09:08:23.165Z</time>
</trkpt>
<trkpt lat="31.7421700" lon="35.3113800">
<ele>467.329987</ele>
<time>2021-11-09T09:08:23.165Z</time>
</trkpt>
<trkpt lat="31.7424900" lon="35.3119100">
<ele>455.059998</ele>
<time>2021-11-09T09:08:23.165Z</time>
</trkpt>
<trkpt lat="31.7424300" lon="35.3128400">
<ele>447.529999</ele>
<time>2021-11-09T09:08:23.165Z</time>
</trkpt>
<trkpt lat="31.7426700" lon="35.3141000">
<ele>439.969971</ele>
<time>2021-11-09T09:08:23.165Z</time>
</trkpt>
<trkpt lat="31.7425600" lon="35.3145000">
<ele>440.600006</ele>
<time>2021-11-09T09:08:23.165Z</time>
</trkpt>
<trkpt lat="31.7426900" lon="35.3152000">
<ele>438.609985</ele>
<time>2021-11-09T09:08:23.165Z</time>
</trkpt>
<trkpt lat="31.7417500" lon="35.3171300">
<ele>434.199982</ele>
<time>2021-11-09T09:08:23.165Z</time>
</trkpt>
<trkpt lat="31.7417300" lon="35.3175100">
<ele>435.260010</ele>
<time>2021-11-09T09:08:23.165Z</time>
</trkpt>
<trkpt lat="31.7413900" lon="35.3183300">
<ele>431.000000</ele>
<time>2021-11-09T09:08:23.165Z</time>
</trkpt>
<trkpt lat="31.7409200" lon="35.3204900">
<ele>424.920013</ele>
<time>2021-11-09T09:08:23.165Z</time>
</trkpt>
<trkpt lat="31.7406600" lon="35.3209100">
<ele>421.680023</ele>
<time>2021-11-09T09:08:23.165Z</time>
</trkpt>
<trkpt lat="31.7405600" lon="35.3214200">
<ele>420.879974</ele>
<time>2021-11-09T09:08:23.165Z</time>
</trkpt>
<trkpt lat="31.7401500" lon="35.3225700">
<ele>415.059998</ele>
<time>2021-11-09T09:08:23.165Z</time>
</trkpt>
<trkpt lat="31.7399800" lon="35.3232300">
<ele>404.109985</ele>
<time>2021-11-09T09:08:23.165Z</time>
</trkpt>
<trkpt lat="31.7399700" lon="35.3234600">
<ele>404.090027</ele>
<time>2021-11-09T09:08:23.165Z</time>
</trkpt>
<trkpt lat="31.7397000" lon="35.3241000">
<ele>404.720001</ele>
<time>2021-11-09T09:08:23.165Z</time>
</trkpt>
<trkpt lat="31.7396100" lon="35.3245700">
<ele>400.600006</ele>
<time>2021-11-09T09:08:23.165Z</time>
</trkpt>
<trkpt lat="31.7391000" lon="35.3258200">
<ele>392.050018</ele>
<time>2021-11-09T09:08:23.165Z</time>
</trkpt>
<trkpt lat="31.7390300" lon="35.3262300">
<ele>388.519989</ele>
<time>2021-11-09T09:08:23.165Z</time>
</trkpt>
<trkpt lat="31.7387600" lon="35.3268700">
<ele>385.460022</ele>
<time>2021-11-09T09:08:23.165Z</time>
</trkpt>
<trkpt lat="31.7383400" lon="35.3275700">
<ele>393.160004</ele>
<time>2021-11-09T09:08:23.165Z</time>
</trkpt>
<trkpt lat="31.7382300" lon="35.3276700">
<ele>393.029999</ele>
<time>2021-11-09T09:08:23.165Z</time>
</trkpt>
<trkpt lat="31.7381400" lon="35.3276500">
<ele>391.110016</ele>
<time>2021-11-09T09:08:23.165Z</time>
</trkpt>
<trkpt lat="31.7381900" lon="35.3276100">
<ele>391.609985</ele>
<time>2021-11-09T09:08:23.165Z</time>
</trkpt>
<trkpt lat="31.7381000" lon="35.3276700">
<ele>390.480011</ele>
<time>2021-11-09T09:08:23.165Z</time>
</trkpt>
<trkpt lat="31.7377800" lon="35.3280100">
<ele>384.230011</ele>
<time>2021-11-09T09:08:23.165Z</time>
</trkpt>
<trkpt lat="31.7376900" lon="35.3279800">
<ele>383.269989</ele>
<time>2021-11-09T09:08:23.165Z</time>
</trkpt>
<trkpt lat="31.7376100" lon="35.3277900">
<ele>384.270020</ele>
<time>2021-11-09T09:08:23.165Z</time>
</trkpt>
<trkpt lat="31.7376100" lon="35.3274300">
<ele>384.700012</ele>
<time>2021-11-09T09:08:23.165Z</time>
</trkpt>
<trkpt lat="31.7378500" lon="35.3269300">
<ele>385.389984</ele>
<time>2021-11-09T09:08:23.165Z</time>
</trkpt>
<trkpt lat="31.7378500" lon="35.3267300">
<ele>383.570007</ele>
<time>2021-11-09T09:08:23.165Z</time>
</trkpt>
<trkpt lat="31.7374400" lon="35.3262300">
<ele>374.290009</ele>
<time>2021-11-09T09:08:23.165Z</time>
</trkpt>
<trkpt lat="31.7373700" lon="35.3260300">
<ele>373.260010</ele>
<time>2021-11-09T09:08:23.165Z</time>
</trkpt>
<trkpt lat="31.7374100" lon="35.3255700">
<ele>371.489990</ele>
<time>2021-11-09T09:08:23.165Z</time>
</trkpt>
<trkpt lat="31.7377700" lon="35.3250700">
<ele>370.319977</ele>
<time>2021-11-09T09:08:23.165Z</time>
</trkpt>
<trkpt lat="31.7377200" lon="35.3249100">
<ele>365.220001</ele>
<time>2021-11-09T09:08:23.165Z</time>
</trkpt>
<trkpt lat="31.7375400" lon="35.3247700">
<ele>359.220001</ele>
<time>2021-11-09T09:08:23.165Z</time>
</trkpt>
<trkpt lat="31.7373700" lon="35.3247600">
<ele>356.419983</ele>
<time>2021-11-09T09:08:23.165Z</time>
</trkpt>
<trkpt lat="31.7370300" lon="35.3248800">
<ele>353.509979</ele>
<time>2021-11-09T09:08:23.165Z</time>
</trkpt>
<trkpt lat="31.7365000" lon="35.3255700">
<ele>352.309998</ele>
<time>2021-11-09T09:08:23.165Z</time>
</trkpt>
<trkpt lat="31.7361500" lon="35.3255800">
<ele>348.029999</ele>
<time>2021-11-09T09:08:23.165Z</time>
</trkpt>
<trkpt lat="31.7359900" lon="35.3261000">
<ele>343.890015</ele>
<time>2021-11-09T09:08:23.165Z</time>
</trkpt>
<trkpt lat="31.7356100" lon="35.3264100">
<ele>347.619995</ele>
<time>2021-11-09T09:08:23.165Z</time>
</trkpt>
<trkpt lat="31.7355100" lon="35.3264400">
<ele>348.410004</ele>
<time>2021-11-09T09:08:23.165Z</time>
</trkpt>
<trkpt lat="31.7353400" lon="35.3264100">
<ele>349.429993</ele>
<time>2021-11-09T09:08:23.165Z</time>
</trkpt>
<trkpt lat="31.7346600" lon="35.3261100">
<ele>337.459991</ele>
<time>2021-11-09T09:08:23.165Z</time>
</trkpt>
<trkpt lat="31.7341800" lon="35.3257600">
<ele>342.700012</ele>
<time>2021-11-09T09:08:23.165Z</time>
</trkpt>
<trkpt lat="31.7333500" lon="35.3255200">
<ele>346.440002</ele>
<time>2021-11-09T09:08:23.165Z</time>
</trkpt>
<trkpt lat="31.7329300" lon="35.3251300">
<ele>340.799988</ele>
<time>2021-11-09T09:08:23.165Z</time>
</trkpt>
<trkpt lat="31.7327100" lon="35.3246400">
<ele>329.909973</ele>
<time>2021-11-09T09:08:23.165Z</time>
</trkpt>
<trkpt lat="31.7324400" lon="35.3243700">
<ele>331.109985</ele>
<time>2021-11-09T09:08:23.165Z</time>
</trkpt>
<trkpt lat="31.7322000" lon="35.3242700">
<ele>331.350006</ele>
<time>2021-11-09T09:08:23.165Z</time>
</trkpt>
<trkpt lat="31.7317300" lon="35.3243200">
<ele>324.210022</ele>
<time>2021-11-09T09:08:23.165Z</time>
</trkpt>
<trkpt lat="31.7313500" lon="35.3248800">
<ele>324.760010</ele>
<time>2021-11-09T09:08:23.165Z</time>
</trkpt>
<trkpt lat="31.7310600" lon="35.3250400">
<ele>326.630005</ele>
<time>2021-11-09T09:08:23.165Z</time>
</trkpt>
<trkpt lat="31.7308500" lon="35.3249900">
<ele>323.130005</ele>
<time>2021-11-09T09:08:23.165Z</time>
</trkpt>
<trkpt lat="31.7304900" lon="35.3245600">
<ele>326.999969</ele>
<time>2021-11-09T09:08:23.165Z</time>
</trkpt>
<trkpt lat="31.7302500" lon="35.3244300">
<ele>321.850006</ele>
<time>2021-11-09T09:08:23.165Z</time>
</trkpt>
<trkpt lat="31.7301000" lon="35.3245600">
<ele>317.899994</ele>
<time>2021-11-09T09:08:23.165Z</time>
</trkpt>
<trkpt lat="31.7301000" lon="35.3248500">
<ele>320.109985</ele>
<time>2021-11-09T09:08:23.165Z</time>
</trkpt>
<trkpt lat="31.7299800" lon="35.3249800">
<ele>320.630005</ele>
<time>2021-11-09T09:08:23.165Z</time>
</trkpt>
<trkpt lat="31.7298600" lon="35.3250100">
<ele>320.779999</ele>
<time>2021-11-09T09:08:23.165Z</time>
</trkpt>
<trkpt lat="31.7294000" lon="35.3246400">
<ele>312.020020</ele>
<time>2021-11-09T09:08:23.165Z</time>
</trkpt>
<trkpt lat="31.7291400" lon="35.3243100">
<ele>307.229980</ele>
<time>2021-11-09T09:08:23.165Z</time>
</trkpt>
<trkpt lat="31.7288900" lon="35.3242700">
<ele>304.380005</ele>
<time>2021-11-09T09:08:23.165Z</time>
</trkpt>
<trkpt lat="31.7287300" lon="35.3243500">
<ele>301.799988</ele>
<time>2021-11-09T09:08:23.165Z</time>
</trkpt>
<trkpt lat="31.7277700" lon="35.3252900">
<ele>297.540009</ele>
<time>2021-11-09T09:08:23.165Z</time>
</trkpt>
<trkpt lat="31.7272800" lon="35.3251400">
<ele>295.799988</ele>
<time>2021-11-09T09:08:23.165Z</time>
</trkpt>
<trkpt lat="31.7271000" lon="35.3249900">
<ele>293.670013</ele>
<time>2021-11-09T09:08:23.165Z</time>
</trkpt>
<trkpt lat="31.7270400" lon="35.3248300">
<ele>290.449982</ele>
<time>2021-11-09T09:08:23.165Z</time>
</trkpt>
<trkpt lat="31.7270500" lon="35.3243600">
<ele>286.500000</ele>
<time>2021-11-09T09:08:23.165Z</time>
</trkpt>
<trkpt lat="31.7269800" lon="35.3241700">
<ele>284.660004</ele>
<time>2021-11-09T09:08:23.165Z</time>
</trkpt>
<trkpt lat="31.7268400" lon="35.3240100">
<ele>285.670013</ele>
<time>2021-11-09T09:08:23.165Z</time>
</trkpt>
<trkpt lat="31.7266300" lon="35.3239000">
<ele>285.880005</ele>
<time>2021-11-09T09:08:23.165Z</time>
</trkpt>
<trkpt lat="31.7262500" lon="35.3240100">
<ele>283.690002</ele>
<time>2021-11-09T09:08:23.165Z</time>
</trkpt>
<trkpt lat="31.7260300" lon="35.3239400">
<ele>283.500000</ele>
<time>2021-11-09T09:08:23.165Z</time>
</trkpt>
<trkpt lat="31.7256600" lon="35.3235000">
<ele>282.429993</ele>
<time>2021-11-09T09:08:23.165Z</time>
</trkpt>
<trkpt lat="31.7250200" lon="35.3233300">
<ele>281.759979</ele>
<time>2021-11-09T09:08:23.165Z</time>
</trkpt>
<trkpt lat="31.7243400" lon="35.3226300">
<ele>270.160004</ele>
<time>2021-11-09T09:08:23.165Z</time>
</trkpt>
<trkpt lat="31.7240700" lon="35.3225100">
<ele>268.950012</ele>
<time>2021-11-09T09:08:23.165Z</time>
</trkpt>
<trkpt lat="31.7239200" lon="35.3226000">
<ele>267.619995</ele>
<time>2021-11-09T09:08:23.165Z</time>
</trkpt>
<trkpt lat="31.7235900" lon="35.3231800">
<ele>268.679993</ele>
<time>2021-11-09T09:08:23.165Z</time>
</trkpt>
<trkpt lat="31.7233600" lon="35.3234500">
<ele>271.390015</ele>
<time>2021-11-09T09:08:23.165Z</time>
</trkpt>
<trkpt lat="31.7232700" lon="35.3236800">
<ele>271.510010</ele>
<time>2021-11-09T09:08:23.165Z</time>
</trkpt>
<trkpt lat="31.7228800" lon="35.3242000">
<ele>268.760010</ele>
<time>2021-11-09T09:08:23.165Z</time>
</trkpt>
<trkpt lat="31.7226900" lon="35.3248600">
<ele>268.639984</ele>
<time>2021-11-09T09:08:23.165Z</time>
</trkpt>
<trkpt lat="31.7222900" lon="35.3252500">
<ele>266.959991</ele>
<time>2021-11-09T09:08:23.165Z</time>
</trkpt>
<trkpt lat="31.7221100" lon="35.3256700">
<ele>266.970001</ele>
<time>2021-11-09T09:08:23.165Z</time>
</trkpt>
<trkpt lat="31.7219600" lon="35.3258600">
<ele>266.450012</ele>
<time>2021-11-09T09:08:23.165Z</time>
</trkpt>
<trkpt lat="31.7217200" lon="35.3258900">
<ele>267.899994</ele>
<time>2021-11-09T09:08:23.165Z</time>
</trkpt>
<trkpt lat="31.7214400" lon="35.3257800">
<ele>266.020020</ele>
<time>2021-11-09T09:08:23.165Z</time>
</trkpt>
<trkpt lat="31.7206800" lon="35.3256100">
<ele>267.279999</ele>
<time>2021-11-09T09:08:23.165Z</time>
</trkpt>
<trkpt lat="31.7203100" lon="35.3254200">
<ele>265.799988</ele>
<time>2021-11-09T09:08:23.165Z</time>
</trkpt>
<trkpt lat="31.7195700" lon="35.3254900">
<ele>251.640015</ele>
<time>2021-11-09T09:08:23.165Z</time>
</trkpt>
<trkpt lat="31.7192400" lon="35.3256200">
<ele>245.490005</ele>
<time>2021-11-09T09:08:23.165Z</time>
</trkpt>
<trkpt lat="31.7188800" lon="35.3258700">
<ele>248.639999</ele>
<time>2021-11-09T09:08:23.165Z</time>
</trkpt>
<trkpt lat="31.7187100" lon="35.3261400">
<ele>250.880005</ele>
<time>2021-11-09T09:08:23.165Z</time>
</trkpt>
<trkpt lat="31.7181200" lon="35.3266300">
<ele>249.970001</ele>
<time>2021-11-09T09:08:23.165Z</time>
</trkpt>
<trkpt lat="31.7177400" lon="35.3266800">
<ele>252.669998</ele>
<time>2021-11-09T09:08:23.165Z</time>
</trkpt>
<trkpt lat="31.7174700" lon="35.3264800">
<ele>252.309998</ele>
<time>2021-11-09T09:08:23.165Z</time>
</trkpt>
<trkpt lat="31.7173600" lon="35.3264700">
<ele>253.389999</ele>
<time>2021-11-09T09:08:23.165Z</time>
</trkpt>
<trkpt lat="31.7165800" lon="35.3271300">
<ele>254.199997</ele>
<time>2021-11-09T09:08:23.165Z</time>
</trkpt>
<trkpt lat="31.7163300" lon="35.3271700">
<ele>252.210007</ele>
<time>2021-11-09T09:08:23.165Z</time>
</trkpt>
<trkpt lat="31.7158000" lon="35.3270900">
<ele>245.399994</ele>
<time>2021-11-09T09:08:23.165Z</time>
</trkpt>
<trkpt lat="31.7155600" lon="35.3271400">
<ele>241.080002</ele>
<time>2021-11-09T09:08:23.165Z</time>
</trkpt>
<trkpt lat="31.7154400" lon="35.3272400">
<ele>238.580002</ele>
<time>2021-11-09T09:08:23.165Z</time>
</trkpt>
<trkpt lat="31.7151400" lon="35.3277100">
<ele>235.880005</ele>
<time>2021-11-09T09:08:23.165Z</time>
</trkpt>
<trkpt lat="31.7150500" lon="35.3280100">
<ele>235.509995</ele>
<time>2021-11-09T09:08:23.165Z</time>
</trkpt>
<trkpt lat="31.7150500" lon="35.3283200">
<ele>237.100006</ele>
<time>2021-11-09T09:08:23.165Z</time>
</trkpt>
<trkpt lat="31.7152900" lon="35.3291900">
<ele>241.850006</ele>
<time>2021-11-09T09:08:23.165Z</time>
</trkpt>
<trkpt lat="31.7152700" lon="35.3293200">
<ele>240.949997</ele>
<time>2021-11-09T09:08:23.165Z</time>
</trkpt>
<trkpt lat="31.7152700" lon="35.3292900">
<ele>241.169998</ele>
<time>2021-11-09T09:08:23.165Z</time>
</trkpt>
<trkpt lat="31.7154500" lon="35.3294400">
<ele>242.470001</ele>
<time>2021-11-09T09:08:23.165Z</time>
</trkpt>
<trkpt lat="31.7154400" lon="35.3296800">
<ele>244.529999</ele>
<time>2021-11-09T09:08:23.165Z</time>
</trkpt>
<trkpt lat="31.7151900" lon="35.3298800">
<ele>244.759995</ele>
<time>2021-11-09T09:08:23.165Z</time>
</trkpt>
<trkpt lat="31.7150800" lon="35.3300900">
<ele>246.389999</ele>
<time>2021-11-09T09:08:23.165Z</time>
</trkpt>
<trkpt lat="31.7151200" lon="35.3302000">
<ele>248.979996</ele>
<time>2021-11-09T09:08:23.165Z</time>
</trkpt>
<trkpt lat="31.7152000" lon="35.3302300">
<ele>250.500000</ele>
<time>2021-11-09T09:08:23.165Z</time>
</trkpt>
<trkpt lat="31.7152600" lon="35.3304600">
<ele>250.789993</ele>
<time>2021-11-09T09:08:23.165Z</time>
</trkpt>
<trkpt lat="31.7153800" lon="35.3305900">
<ele>247.250000</ele>
<time>2021-11-09T09:08:23.165Z</time>
</trkpt>
<trkpt lat="31.7153600" lon="35.3306600">
<ele>247.440002</ele>
<time>2021-11-09T09:08:23.165Z</time>
</trkpt>
<trkpt lat="31.7150600" lon="35.3305600">
<ele>253.180008</ele>
<time>2021-11-09T09:08:23.165Z</time>
</trkpt>
<trkpt lat="31.7144800" lon="35.3306400">
<ele>257.779999</ele>
<time>2021-11-09T09:08:23.165Z</time>
</trkpt>
<trkpt lat="31.7142200" lon="35.3305400">
<ele>260.419983</ele>
<time>2021-11-09T09:08:23.165Z</time>
</trkpt>
<trkpt lat="31.7139400" lon="35.3308900">
<ele>271.119995</ele>
<time>2021-11-09T09:08:23.165Z</time>
</trkpt>
<trkpt lat="31.7137700" lon="35.3309500">
<ele>274.410004</ele>
<time>2021-11-09T09:08:23.165Z</time>
</trkpt>
<trkpt lat="31.7134800" lon="35.3309100">
<ele>275.459991</ele>
<time>2021-11-09T09:08:23.165Z</time>
</trkpt>
<trkpt lat="31.7133800" lon="35.3309800">
<ele>276.859985</ele>
<time>2021-11-09T09:08:23.165Z</time>
</trkpt>
<trkpt lat="31.7133300" lon="35.3311900">
<ele>280.779999</ele>
<time>2021-11-09T09:08:23.165Z</time>
</trkpt>
<trkpt lat="31.7135300" lon="35.3322900">
<ele>281.899994</ele>
<time>2021-11-09T09:08:23.165Z</time>
</trkpt>
<trkpt lat="31.7135400" lon="35.3324300">
<ele>283.269989</ele>
<time>2021-11-09T09:08:23.165Z</time>
</trkpt>
<trkpt lat="31.7135400" lon="35.3324300">
<ele>283.269989</ele>
<time>2021-11-09T09:08:23.165Z</time>
</trkpt>
<trkpt lat="31.7135800" lon="35.3324300">
<ele>282.690002</ele>
<time>2021-11-09T09:08:23.165Z</time>
</trkpt>
<trkpt lat="31.7135800" lon="35.3324900">
<ele>283.339996</ele>
<time>2021-11-09T09:08:23.165Z</time>
</trkpt>
<trkpt lat="31.7136300" lon="35.3327500">
<ele>286.369995</ele>
<time>2021-11-09T09:08:23.165Z</time>
</trkpt>
<trkpt lat="31.7136200" lon="35.3328500">
<ele>286.850006</ele>
<time>2021-11-09T09:08:23.165Z</time>
</trkpt>
<trkpt lat="31.7136300" lon="35.3330700">
<ele>288.899994</ele>
<time>2021-11-09T09:08:23.165Z</time>
</trkpt>
<trkpt lat="31.7136300" lon="35.3333000">
<ele>291.329987</ele>
<time>2021-11-09T09:08:23.165Z</time>
</trkpt>
<trkpt lat="31.7133900" lon="35.3341800">
<ele>303.670013</ele>
<time>2021-11-09T09:08:23.165Z</time>
</trkpt>
<trkpt lat="31.7133000" lon="35.3343700">
<ele>305.360016</ele>
<time>2021-11-09T09:08:23.165Z</time>
</trkpt>
<trkpt lat="31.7131200" lon="35.3346000">
<ele>311.420013</ele>
<time>2021-11-09T09:08:23.165Z</time>
</trkpt>
<trkpt lat="31.7130500" lon="35.3347500">
<ele>314.440002</ele>
<time>2021-11-09T09:08:23.165Z</time>
</trkpt>
<trkpt lat="31.7130100" lon="35.3349600">
<ele>317.470001</ele>
<time>2021-11-09T09:08:23.165Z</time>
</trkpt>
<trkpt lat="31.7130000" lon="35.3350600">
<ele>317.570007</ele>
<time>2021-11-09T09:08:23.165Z</time>
</trkpt>
<trkpt lat="31.7130000" lon="35.3352700">
<ele>316.059998</ele>
<time>2021-11-09T09:08:23.165Z</time>
</trkpt>
<trkpt lat="31.7130200" lon="35.3354100">
<ele>315.410004</ele>
<time>2021-11-09T09:08:23.165Z</time>
</trkpt>
<trkpt lat="31.7130100" lon="35.3354500">
<ele>314.940002</ele>
<time>2021-11-09T09:08:23.165Z</time>
</trkpt>
<trkpt lat="31.7128800" lon="35.3357400">
<ele>311.489990</ele>
<time>2021-11-09T09:08:23.165Z</time>
</trkpt>
<trkpt lat="31.7128300" lon="35.3359100">
<ele>310.419983</ele>
<time>2021-11-09T09:08:23.165Z</time>
</trkpt>
<trkpt lat="31.7127900" lon="35.3359800">
<ele>309.929993</ele>
<time>2021-11-09T09:08:23.165Z</time>
</trkpt>
<trkpt lat="31.7127300" lon="35.3361400">
<ele>310.829987</ele>
<time>2021-11-09T09:08:23.165Z</time>
</trkpt>
<trkpt lat="31.7127000" lon="35.3363400">
<ele>310.720001</ele>
<time>2021-11-09T09:08:23.165Z</time>
</trkpt>
<trkpt lat="31.7127000" lon="35.3363900">
<ele>310.720001</ele>
<time>2021-11-09T09:08:23.165Z</time>
</trkpt>
<trkpt lat="31.7126800" lon="35.3364800">
<ele>310.320007</ele>
<time>2021-11-09T09:08:23.165Z</time>
</trkpt>
<trkpt lat="31.7126100" lon="35.3366600">
<ele>309.419983</ele>
<time>2021-11-09T09:08:23.165Z</time>
</trkpt>
<trkpt lat="31.7124900" lon="35.3367900">
<ele>310.269989</ele>
<time>2021-11-09T09:08:23.165Z</time>
</trkpt>
<trkpt lat="31.7124400" lon="35.3369200">
<ele>310.950012</ele>
<time>2021-11-09T09:08:23.165Z</time>
</trkpt>
<trkpt lat="31.7123300" lon="35.3371000">
<ele>310.450012</ele>
<time>2021-11-09T09:08:23.165Z</time>
</trkpt>
<trkpt lat="31.7122900" lon="35.3371400">
<ele>310.209991</ele>
<time>2021-11-09T09:08:23.165Z</time>
</trkpt>
<trkpt lat="31.7122300" lon="35.3372900">
<ele>310.350006</ele>
<time>2021-11-09T09:08:23.165Z</time>
</trkpt>
<trkpt lat="31.7121100" lon="35.3375000">
<ele>308.980011</ele>
<time>2021-11-09T09:08:23.165Z</time>
</trkpt>
<trkpt lat="31.7120600" lon="35.3375300">
<ele>308.420013</ele>
<time>2021-11-09T09:08:23.165Z</time>
</trkpt>
<trkpt lat="31.7120600" lon="35.3375300">
<ele>308.420013</ele>
<time>2021-11-09T09:08:23.165Z</time>
</trkpt>
<trkpt lat="31.7120300" lon="35.3375500">
<ele>308.149994</ele>
<time>2021-11-09T09:08:23.165Z</time>
</trkpt>
<trkpt lat="31.7118900" lon="35.3375300">
<ele>306.779999</ele>
<time>2021-11-09T09:08:23.165Z</time>
</trkpt>
<trkpt lat="31.7118400" lon="35.3373800">
<ele>307.619995</ele>
<time>2021-11-09T09:08:23.165Z</time>
</trkpt>
<trkpt lat="31.7117600" lon="35.3372700">
<ele>308.980011</ele>
<time>2021-11-09T09:08:23.165Z</time>
</trkpt>
<trkpt lat="31.7115900" lon="35.3371400">
<ele>310.169983</ele>
<time>2021-11-09T09:08:23.165Z</time>
</trkpt>
<trkpt lat="31.7114300" lon="35.3369800">
<ele>310.089996</ele>
<time>2021-11-09T09:08:23.165Z</time>
</trkpt>
<trkpt lat="31.7111400" lon="35.3368300">
<ele>307.750000</ele>
<time>2021-11-09T09:08:23.165Z</time>
</trkpt>
<trkpt lat="31.7110600" lon="35.3368100">
<ele>307.059998</ele>
<time>2021-11-09T09:08:23.165Z</time>
</trkpt>
<trkpt lat="31.7105000" lon="35.3365100">
<ele>297.160004</ele>
<time>2021-11-09T09:08:23.165Z</time>
</trkpt>
<trkpt lat="31.7103500" lon="35.3363800">
<ele>293.940002</ele>
<time>2021-11-09T09:08:23.165Z</time>
</trkpt>
<trkpt lat="31.7102700" lon="35.3362500">
<ele>291.470001</ele>
<time>2021-11-09T09:08:23.165Z</time>
</trkpt>
<trkpt lat="31.7101000" lon="35.3358000">
<ele>288.640015</ele>
<time>2021-11-09T09:08:23.165Z</time>
</trkpt>
<trkpt lat="31.7098300" lon="35.3354500">
<ele>287.609985</ele>
<time>2021-11-09T09:08:23.165Z</time>
</trkpt>
<trkpt lat="31.7096900" lon="35.3351900">
<ele>288.630005</ele>
<time>2021-11-09T09:08:23.165Z</time>
</trkpt>
<trkpt lat="31.7095800" lon="35.3349000">
<ele>288.929993</ele>
<time>2021-11-09T09:08:23.165Z</time>
</trkpt>
<trkpt lat="31.7095200" lon="35.3347600">
<ele>287.080017</ele>
<time>2021-11-09T09:08:23.165Z</time>
</trkpt>
<trkpt lat="31.7094300" lon="35.3347000">
<ele>285.610016</ele>
<time>2021-11-09T09:08:23.165Z</time>
</trkpt>
<trkpt lat="31.7092200" lon="35.3346400">
<ele>283.049988</ele>
<time>2021-11-09T09:08:23.165Z</time>
</trkpt>
<trkpt lat="31.7089000" lon="35.3347000">
<ele>280.750000</ele>
<time>2021-11-09T09:08:23.165Z</time>
</trkpt>
<trkpt lat="31.7088900" lon="35.3347000">
<ele>280.619995</ele>
<time>2021-11-09T09:08:23.165Z</time>
</trkpt>
<trkpt lat="31.7089000" lon="35.3347200">
<ele>281.119995</ele>
<time>2021-11-09T09:08:23.165Z</time>
</trkpt>
<trkpt lat="31.7089000" lon="35.3347200">
<ele>281.119995</ele>
<time>2021-11-09T09:08:23.165Z</time>
</trkpt>
<trkpt lat="31.7085300" lon="35.3347900">
<ele>285.679993</ele>
<time>2021-11-09T09:08:23.165Z</time>
</trkpt>
<trkpt lat="31.7080700" lon="35.3350900">
<ele>297.559998</ele>
<time>2021-11-09T09:08:23.165Z</time>
</trkpt>
<trkpt lat="31.7077700" lon="35.3350500">
<ele>294.920013</ele>
<time>2021-11-09T09:08:23.165Z</time>
</trkpt>
<trkpt lat="31.7072900" lon="35.3346900">
<ele>291.929993</ele>
<time>2021-11-09T09:08:23.165Z</time>
</trkpt>
<trkpt lat="31.7070400" lon="35.3340700">
<ele>279.429993</ele>
<time>2021-11-09T09:08:23.165Z</time>
</trkpt>
<trkpt lat="31.7069200" lon="35.3339600">
<ele>275.910004</ele>
<time>2021-11-09T09:08:23.165Z</time>
</trkpt>
<trkpt lat="31.7063900" lon="35.3337200">
<ele>269.339996</ele>
<time>2021-11-09T09:08:23.165Z</time>
</trkpt>
<trkpt lat="31.7058500" lon="35.3334900">
<ele>268.160004</ele>
<time>2021-11-09T09:08:23.165Z</time>
</trkpt>
<trkpt lat="31.7053200" lon="35.3332500">
<ele>263.119995</ele>
<time>2021-11-09T09:08:23.165Z</time>
</trkpt>
<trkpt lat="31.7054100" lon="35.3333600">
<ele>264.509979</ele>
<time>2021-11-09T09:08:23.165Z</time>
</trkpt>
<trkpt lat="31.7056600" lon="35.3333800">
<ele>265.319977</ele>
<time>2021-11-09T09:08:23.165Z</time>
</trkpt>
<trkpt lat="31.7062200" lon="35.3336700">
<ele>270.059998</ele>
<time>2021-11-09T09:08:23.165Z</time>
</trkpt>
<trkpt lat="31.7067100" lon="35.3338000">
<ele>269.760010</ele>
<time>2021-11-09T09:08:23.165Z</time>
</trkpt>
<trkpt lat="31.7070400" lon="35.3340600">
<ele>279.089996</ele>
<time>2021-11-09T09:08:23.165Z</time>
</trkpt>
<trkpt lat="31.7071600" lon="35.3342900">
<ele>286.019989</ele>
<time>2021-11-09T09:08:23.165Z</time>
</trkpt>
<trkpt lat="31.7072700" lon="35.3346900">
<ele>291.880005</ele>
<time>2021-11-09T09:08:23.165Z</time>
</trkpt>
<trkpt lat="31.7075000" lon="35.3348700">
<ele>292.470001</ele>
<time>2021-11-09T09:08:23.165Z</time>
</trkpt>
<trkpt lat="31.7076700" lon="35.3351900">
<ele>294.100006</ele>
<time>2021-11-09T09:08:23.165Z</time>
</trkpt>
<trkpt lat="31.7077200" lon="35.3357600">
<ele>297.260010</ele>
<time>2021-11-09T09:08:23.165Z</time>
</trkpt>
<trkpt lat="31.7078300" lon="35.3361300">
<ele>299.679993</ele>
<time>2021-11-09T09:08:23.165Z</time>
</trkpt>
<trkpt lat="31.7081800" lon="35.3365100">
<ele>307.500000</ele>
<time>2021-11-09T09:08:23.165Z</time>
</trkpt>
<trkpt lat="31.7085300" lon="35.3368900">
<ele>310.190002</ele>
<time>2021-11-09T09:08:23.165Z</time>
</trkpt>
<trkpt lat="31.7087800" lon="35.3373100">
<ele>309.880005</ele>
<time>2021-11-09T09:08:23.165Z</time>
</trkpt>
<trkpt lat="31.7091700" lon="35.3376300">
<ele>305.989990</ele>
<time>2021-11-09T09:08:23.165Z</time>
</trkpt>
<trkpt lat="31.7091300" lon="35.3385500">
<ele>300.089996</ele>
<time>2021-11-09T09:08:23.165Z</time>
</trkpt>
<trkpt lat="31.7090500" lon="35.3387900">
<ele>298.450012</ele>
<time>2021-11-09T09:08:23.165Z</time>
</trkpt>
<trkpt lat="31.7083600" lon="35.3392300">
<ele>292.829987</ele>
<time>2021-11-09T09:08:23.165Z</time>
</trkpt>
<trkpt lat="31.7079400" lon="35.3398100">
<ele>281.589996</ele>
<time>2021-11-09T09:08:23.165Z</time>
</trkpt>
<trkpt lat="31.7075300" lon="35.3402200">
<ele>276.309998</ele>
<time>2021-11-09T09:08:23.165Z</time>
</trkpt>
<trkpt lat="31.7071100" lon="35.3406200">
<ele>266.529999</ele>
<time>2021-11-09T09:08:23.165Z</time>
</trkpt>
<trkpt lat="31.7068700" lon="35.3411200">
<ele>260.250000</ele>
<time>2021-11-09T09:08:23.165Z</time>
</trkpt>
<trkpt lat="31.7067500" lon="35.3412500">
<ele>256.000000</ele>
<time>2021-11-09T09:08:23.165Z</time>
</trkpt>
<trkpt lat="31.7065400" lon="35.3413300">
<ele>250.350006</ele>
<time>2021-11-09T09:08:23.165Z</time>
</trkpt>
<trkpt lat="31.7060000" lon="35.3417200">
<ele>238.979996</ele>
<time>2021-11-09T09:08:23.165Z</time>
</trkpt>
<trkpt lat="31.7054600" lon="35.3421100">
<ele>230.380005</ele>
<time>2021-11-09T09:08:23.165Z</time>
</trkpt>
<trkpt lat="31.7047500" lon="35.3424200">
<ele>215.440002</ele>
<time>2021-11-09T09:08:23.165Z</time>
</trkpt>
<trkpt lat="31.7045800" lon="35.3424000">
<ele>214.199997</ele>
<time>2021-11-09T09:08:23.165Z</time>
</trkpt>
<trkpt lat="31.7040700" lon="35.3421200">
<ele>211.520004</ele>
<time>2021-11-09T09:08:23.165Z</time>
</trkpt>
<trkpt lat="31.7039100" lon="35.3421700">
<ele>209.560013</ele>
<time>2021-11-09T09:08:23.165Z</time>
</trkpt>
<trkpt lat="31.7040800" lon="35.3429600">
<ele>202.860016</ele>
<time>2021-11-09T09:08:23.165Z</time>
</trkpt>
<trkpt lat="31.7039500" lon="35.3435500">
<ele>191.779999</ele>
<time>2021-11-09T09:08:23.165Z</time>
</trkpt>
<trkpt lat="31.7040800" lon="35.3438000">
<ele>187.980011</ele>
<time>2021-11-09T09:08:23.165Z</time>
</trkpt>
<trkpt lat="31.7041100" lon="35.3440500">
<ele>182.789993</ele>
<time>2021-11-09T09:08:23.165Z</time>
</trkpt>
<trkpt lat="31.7036200" lon="35.3444600">
<ele>173.800003</ele>
<time>2021-11-09T09:08:23.165Z</time>
</trkpt>
<trkpt lat="31.7034900" lon="35.3447700">
<ele>169.270004</ele>
<time>2021-11-09T09:08:23.165Z</time>
</trkpt>
<trkpt lat="31.7035600" lon="35.3449500">
<ele>166.529999</ele>
<time>2021-11-09T09:08:23.165Z</time>
</trkpt>
<trkpt lat="31.7038400" lon="35.3452100">
<ele>159.750000</ele>
<time>2021-11-09T09:08:23.165Z</time>
</trkpt>
<trkpt lat="31.7041100" lon="35.3460300">
<ele>145.990005</ele>
<time>2021-11-09T09:08:23.165Z</time>
</trkpt>
<trkpt lat="31.7043200" lon="35.3462700">
<ele>141.100006</ele>
<time>2021-11-09T09:08:23.165Z</time>
</trkpt>
<trkpt lat="31.7043800" lon="35.3464900">
<ele>137.460007</ele>
<time>2021-11-09T09:08:23.165Z</time>
</trkpt>
<trkpt lat="31.7043400" lon="35.3467200">
<ele>134.910004</ele>
<time>2021-11-09T09:08:23.165Z</time>
</trkpt>
<trkpt lat="31.7042800" lon="35.3468500">
<ele>134.830002</ele>
<time>2021-11-09T09:08:23.165Z</time>
</trkpt>
<trkpt lat="31.7041300" lon="35.3469700">
<ele>131.979996</ele>
<time>2021-11-09T09:08:23.165Z</time>
</trkpt>
<trkpt lat="31.7039100" lon="35.3472300">
<ele>125.479996</ele>
<time>2021-11-09T09:08:23.165Z</time>
</trkpt>
<trkpt lat="31.7038600" lon="35.3474200">
<ele>123.459999</ele>
<time>2021-11-09T09:08:23.165Z</time>
</trkpt>
<trkpt lat="31.7036500" lon="35.3478100">
<ele>118.939995</ele>
<time>2021-11-09T09:08:23.165Z</time>
</trkpt>
<trkpt lat="31.7031700" lon="35.3482000">
<ele>113.770004</ele>
<time>2021-11-09T09:08:23.165Z</time>
</trkpt>
<trkpt lat="31.7028700" lon="35.3485700">
<ele>110.849998</ele>
<time>2021-11-09T09:08:23.165Z</time>
</trkpt>
<trkpt lat="31.7027400" lon="35.3490200">
<ele>109.099998</ele>
<time>2021-11-09T09:08:23.165Z</time>
</trkpt>
<trkpt lat="31.7027000" lon="35.3495700">
<ele>110.839996</ele>
<time>2021-11-09T09:08:23.165Z</time>
</trkpt>
<trkpt lat="31.7025300" lon="35.3500400">
<ele>107.230003</ele>
<time>2021-11-09T09:08:23.165Z</time>
</trkpt>
<trkpt lat="31.7020900" lon="35.3505500">
<ele>104.619995</ele>
<time>2021-11-09T09:08:23.165Z</time>
</trkpt>
<trkpt lat="31.7020200" lon="35.3510800">
<ele>105.570000</ele>
<time>2021-11-09T09:08:23.165Z</time>
</trkpt>
<trkpt lat="31.7019100" lon="35.3513000">
<ele>105.130005</ele>
<time>2021-11-09T09:08:23.165Z</time>
</trkpt>
<trkpt lat="31.7014600" lon="35.3517500">
<ele>104.889999</ele>
<time>2021-11-09T09:08:23.165Z</time>
</trkpt>
<trkpt lat="31.7013400" lon="35.3521200">
<ele>105.979996</ele>
<time>2021-11-09T09:08:23.165Z</time>
</trkpt>
<trkpt lat="31.7014100" lon="35.3526400">
<ele>104.950005</ele>
<time>2021-11-09T09:08:23.165Z</time>
</trkpt>
<trkpt lat="31.7014900" lon="35.3531700">
<ele>99.800003</ele>
<time>2021-11-09T09:08:23.165Z</time>
</trkpt>
<trkpt lat="31.7016800" lon="35.3537100">
<ele>99.160004</ele>
<time>2021-11-09T09:08:23.165Z</time>
</trkpt>
<trkpt lat="31.7015500" lon="35.3544100">
<ele>97.269997</ele>
<time>2021-11-09T09:08:23.165Z</time>
</trkpt>
<trkpt lat="31.7016500" lon="35.3549500">
<ele>97.230003</ele>
<time>2021-11-09T09:08:23.165Z</time>
</trkpt>
<trkpt lat="31.7017500" lon="35.3554800">
<ele>94.360001</ele>
<time>2021-11-09T09:08:23.165Z</time>
</trkpt>
<trkpt lat="31.7019200" lon="35.3561600">
<ele>91.010002</ele>
<time>2021-11-09T09:08:23.165Z</time>
</trkpt>
<trkpt lat="31.7022900" lon="35.3567300">
<ele>89.279999</ele>
<time>2021-11-09T09:08:23.165Z</time>
</trkpt>
<trkpt lat="31.7022100" lon="35.3573000">
<ele>86.650002</ele>
<time>2021-11-09T09:08:23.165Z</time>
</trkpt>
<trkpt lat="31.7021200" lon="35.3578800">
<ele>81.400002</ele>
<time>2021-11-09T09:08:23.165Z</time>
</trkpt>
<trkpt lat="31.7022200" lon="35.3586700">
<ele>78.440002</ele>
<time>2021-11-09T09:08:23.165Z</time>
</trkpt>
<trkpt lat="31.7019200" lon="35.3595200">
<ele>79.599998</ele>
<time>2021-11-09T09:08:23.165Z</time>
</trkpt>
<trkpt lat="31.7018500" lon="35.3601000">
<ele>76.760002</ele>
<time>2021-11-09T09:08:23.165Z</time>
</trkpt>
<trkpt lat="31.7016800" lon="35.3605400">
<ele>75.150002</ele>
<time>2021-11-09T09:08:23.165Z</time>
</trkpt>
<trkpt lat="31.7015600" lon="35.3612600">
<ele>74.669998</ele>
<time>2021-11-09T09:08:23.165Z</time>
</trkpt>
<trkpt lat="31.7013600" lon="35.3618000">
<ele>73.010002</ele>
<time>2021-11-09T09:08:23.165Z</time>
</trkpt>
<trkpt lat="31.7011500" lon="35.3623400">
<ele>71.049995</ele>
<time>2021-11-09T09:08:23.165Z</time>
</trkpt>
<trkpt lat="31.7010200" lon="35.3625400">
<ele>70.930000</ele>
<time>2021-11-09T09:08:23.165Z</time>
</trkpt>
<trkpt lat="31.7008000" lon="35.3627000">
<ele>68.269997</ele>
<time>2021-11-09T09:08:23.165Z</time>
</trkpt>
<trkpt lat="31.7007300" lon="35.3628800">
<ele>67.739998</ele>
<time>2021-11-09T09:08:23.165Z</time>
</trkpt>
<trkpt lat="31.7007100" lon="35.3632000">
<ele>67.260002</ele>
<time>2021-11-09T09:08:23.165Z</time>
</trkpt>
<trkpt lat="31.7008300" lon="35.3635700">
<ele>68.949997</ele>
<time>2021-11-09T09:08:23.165Z</time>
</trkpt>
<trkpt lat="31.7008200" lon="35.3641500">
<ele>70.650002</ele>
<time>2021-11-09T09:08:23.165Z</time>
</trkpt>
<trkpt lat="31.7008200" lon="35.3647300">
<ele>69.800003</ele>
<time>2021-11-09T09:08:23.165Z</time>
</trkpt>
<trkpt lat="31.7008100" lon="35.3653100">
<ele>65.750000</ele>
<time>2021-11-09T09:08:23.165Z</time>
</trkpt>
<trkpt lat="31.7006600" lon="35.3661600">
<ele>68.150002</ele>
<time>2021-11-09T09:08:23.165Z</time>
</trkpt>
<trkpt lat="31.7006500" lon="35.3669300">
<ele>62.770000</ele>
<time>2021-11-09T09:08:23.165Z</time>
</trkpt>
<trkpt lat="31.7005400" lon="35.3674800">
<ele>64.459999</ele>
<time>2021-11-09T09:08:23.165Z</time>
</trkpt>
<trkpt lat="31.7001500" lon="35.3681300">
<ele>57.120003</ele>
<time>2021-11-09T09:08:23.165Z</time>
</trkpt>
<trkpt lat="31.6997600" lon="35.3687700">
<ele>52.040001</ele>
<time>2021-11-09T09:08:23.165Z</time>
</trkpt>
<trkpt lat="31.6994000" lon="35.3691500">
<ele>47.489998</ele>
<time>2021-11-09T09:08:23.165Z</time>
</trkpt>
<trkpt lat="31.6992300" lon="35.3701800">
<ele>48.380001</ele>
<time>2021-11-09T09:08:23.165Z</time>
</trkpt>
<trkpt lat="31.6988700" lon="35.3710000">
<ele>50.260002</ele>
<time>2021-11-09T09:08:23.165Z</time>
</trkpt>
<trkpt lat="31.6987400" lon="35.3716600">
<ele>51.400002</ele>
<time>2021-11-09T09:08:23.165Z</time>
</trkpt>
<trkpt lat="31.6985400" lon="35.3722200">
<ele>49.459999</ele>
<time>2021-11-09T09:08:23.165Z</time>
</trkpt>
<trkpt lat="31.6981900" lon="35.3725600">
<ele>50.940002</ele>
<time>2021-11-09T09:08:23.165Z</time>
</trkpt>
<trkpt lat="31.6981300" lon="35.3731300">
<ele>57.320000</ele>
<time>2021-11-09T09:08:23.165Z</time>
</trkpt>
<trkpt lat="31.6980700" lon="35.3737100">
<ele>60.509998</ele>
<time>2021-11-09T09:08:23.165Z</time>
</trkpt>
<trkpt lat="31.6980100" lon="35.3742800">
<ele>60.100002</ele>
<time>2021-11-09T09:08:23.165Z</time>
</trkpt>
<trkpt lat="31.6982300" lon="35.3749500">
<ele>53.090000</ele>
<time>2021-11-09T09:08:23.165Z</time>
</trkpt>
<trkpt lat="31.6984500" lon="35.3754400">
<ele>45.820000</ele>
<time>2021-11-09T09:08:23.165Z</time>
</trkpt>
<trkpt lat="31.6986700" lon="35.3759300">
<ele>41.299999</ele>
<time>2021-11-09T09:08:23.165Z</time>
</trkpt>
<trkpt lat="31.6988900" lon="35.3764100">
<ele>40.930000</ele>
<time>2021-11-09T09:08:23.165Z</time>
</trkpt>
<trkpt lat="31.6991100" lon="35.3769000">
<ele>39.290001</ele>
<time>2021-11-09T09:08:23.165Z</time>
</trkpt>
<trkpt lat="31.6993300" lon="35.3773900">
<ele>37.709999</ele>
<time>2021-11-09T09:08:23.165Z</time>
</trkpt>
<trkpt lat="31.6994400" lon="35.3778200">
<ele>33.720001</ele>
<time>2021-11-09T09:08:23.165Z</time>
</trkpt>
<trkpt lat="31.7001700" lon="35.3780200">
<ele>35.980000</ele>
<time>2021-11-09T09:08:23.165Z</time>
</trkpt>
<trkpt lat="31.6998900" lon="35.3786700">
<ele>35.570000</ele>
<time>2021-11-09T09:08:23.165Z</time>
</trkpt>
<trkpt lat="31.7000400" lon="35.3790100">
<ele>38.389999</ele>
<time>2021-11-09T09:08:23.165Z</time>
</trkpt>
<trkpt lat="31.7004200" lon="35.3793600">
<ele>37.000000</ele>
<time>2021-11-09T09:08:23.165Z</time>
</trkpt>
<trkpt lat="31.7007900" lon="35.3797100">
<ele>34.360001</ele>
<time>2021-11-09T09:08:23.165Z</time>
</trkpt>
<trkpt lat="31.7010600" lon="35.3805000">
<ele>31.650002</ele>
<time>2021-11-09T09:08:23.165Z</time>
</trkpt>
<trkpt lat="31.7007900" lon="35.3810700">
<ele>27.969999</ele>
<time>2021-11-09T09:08:23.165Z</time>
</trkpt>
<trkpt lat="31.7005100" lon="35.3816400">
<ele>31.820000</ele>
<time>2021-11-09T09:08:23.165Z</time>
</trkpt>
<trkpt lat="31.7002600" lon="35.3823900">
<ele>32.200001</ele>
<time>2021-11-09T09:08:23.165Z</time>
</trkpt>
<trkpt lat="31.7001800" lon="35.3831000">
<ele>29.349998</ele>
<time>2021-11-09T09:08:23.165Z</time>
</trkpt>
<trkpt lat="31.7005300" lon="35.3834900">
<ele>30.250000</ele>
<time>2021-11-09T09:08:23.165Z</time>
</trkpt>
<trkpt lat="31.7008800" lon="35.3838700">
<ele>29.469999</ele>
<time>2021-11-09T09:08:23.165Z</time>
</trkpt>
<trkpt lat="31.7013500" lon="35.3844700">
<ele>30.330000</ele>
<time>2021-11-09T09:08:23.165Z</time>
</trkpt>
<trkpt lat="31.7012200" lon="35.3851000">
<ele>31.389999</ele>
<time>2021-11-09T09:08:23.165Z</time>
</trkpt>
<trkpt lat="31.7014300" lon="35.3855800">
<ele>36.160000</ele>
<time>2021-11-09T09:08:23.165Z</time>
</trkpt>
<trkpt lat="31.7016400" lon="35.3860700">
<ele>35.470001</ele>
<time>2021-11-09T09:08:23.165Z</time>
</trkpt>
<trkpt lat="31.7018500" lon="35.3865500">
<ele>34.540001</ele>
<time>2021-11-09T09:08:23.165Z</time>
</trkpt>
<trkpt lat="31.7020600" lon="35.3870300">
<ele>38.160000</ele>
<time>2021-11-09T09:08:23.165Z</time>
</trkpt>
<trkpt lat="31.7022700" lon="35.3875100">
<ele>41.930000</ele>
<time>2021-11-09T09:08:23.165Z</time>
</trkpt>
<trkpt lat="31.7024800" lon="35.3880000">
<ele>39.320000</ele>
<time>2021-11-09T09:08:23.165Z</time>
</trkpt>
<trkpt lat="31.7026900" lon="35.3884800">
<ele>45.889999</ele>
<time>2021-11-09T09:08:23.165Z</time>
</trkpt>
<trkpt lat="31.7029000" lon="35.3889600">
<ele>44.790001</ele>
<time>2021-11-09T09:08:23.165Z</time>
</trkpt>
<trkpt lat="31.7031100" lon="35.3894400">
<ele>46.189999</ele>
<time>2021-11-09T09:08:23.165Z</time>
</trkpt>
<trkpt lat="31.7033200" lon="35.3899300">
<ele>48.980000</ele>
<time>2021-11-09T09:08:23.165Z</time>
</trkpt>
<trkpt lat="31.7035300" lon="35.3904100">
<ele>48.660004</ele>
<time>2021-11-09T09:08:23.165Z</time>
</trkpt>
<trkpt lat="31.7037400" lon="35.3908900">
<ele>46.700001</ele>
<time>2021-11-09T09:08:23.165Z</time>
</trkpt>
<trkpt lat="31.7039200" lon="35.3913800">
<ele>46.519997</ele>
<time>2021-11-09T09:08:23.165Z</time>
</trkpt>
<trkpt lat="31.7040900" lon="35.3918600">
<ele>51.290001</ele>
<time>2021-11-09T09:08:23.165Z</time>
</trkpt>
<trkpt lat="31.7042700" lon="35.3923500">
<ele>53.260002</ele>
<time>2021-11-09T09:08:23.165Z</time>
</trkpt>
<trkpt lat="31.7044400" lon="35.3928400">
<ele>54.889999</ele>
<time>2021-11-09T09:08:23.165Z</time>
</trkpt>
<trkpt lat="31.7046100" lon="35.3933800">
<ele>60.609997</ele>
<time>2021-11-09T09:08:23.165Z</time>
</trkpt>
<trkpt lat="31.7047900" lon="35.3939200">
<ele>58.130001</ele>
<time>2021-11-09T09:08:23.165Z</time>
</trkpt>
<trkpt lat="31.7049600" lon="35.3944700">
<ele>53.760002</ele>
<time>2021-11-09T09:08:23.165Z</time>
</trkpt>
<trkpt lat="31.7051300" lon="35.3950100">
<ele>56.740002</ele>
<time>2021-11-09T09:08:23.165Z</time>
</trkpt>
<trkpt lat="31.7057500" lon="35.3957600">
<ele>49.950001</ele>
<time>2021-11-09T09:08:23.165Z</time>
</trkpt>
<trkpt lat="31.7061000" lon="35.3964900">
<ele>38.590000</ele>
<time>2021-11-09T09:08:23.165Z</time>
</trkpt>
<trkpt lat="31.7061600" lon="35.3970300">
<ele>42.190002</ele>
<time>2021-11-09T09:08:23.165Z</time>
</trkpt>
<trkpt lat="31.7062100" lon="35.3975700">
<ele>42.380001</ele>
<time>2021-11-09T09:08:23.165Z</time>
</trkpt>
<trkpt lat="31.7062700" lon="35.3981100">
<ele>45.080002</ele>
<time>2021-11-09T09:08:23.165Z</time>
</trkpt>
<trkpt lat="31.7063200" lon="35.3986500">
<ele>48.970001</ele>
<time>2021-11-09T09:08:23.165Z</time>
</trkpt>
<trkpt lat="31.7063800" lon="35.3991900">
<ele>51.500000</ele>
<time>2021-11-09T09:08:23.165Z</time>
</trkpt>
<trkpt lat="31.7064300" lon="35.3997300">
<ele>61.500000</ele>
<time>2021-11-09T09:08:23.165Z</time>
</trkpt>
<trkpt lat="31.7063000" lon="35.4005500">
<ele>71.209999</ele>
<time>2021-11-09T09:08:23.165Z</time>
</trkpt>
<trkpt lat="31.7060600" lon="35.4011200">
<ele>77.659996</ele>
<time>2021-11-09T09:08:23.165Z</time>
</trkpt>
<trkpt lat="31.7059000" lon="35.4018800">
<ele>79.699997</ele>
<time>2021-11-09T09:08:23.165Z</time>
</trkpt>
<trkpt lat="31.7056200" lon="35.4025800">
<ele>81.759995</ele>
<time>2021-11-09T09:08:23.165Z</time>
</trkpt>
<trkpt lat="31.7055400" lon="35.4031800">
<ele>78.169998</ele>
<time>2021-11-09T09:08:23.165Z</time>
</trkpt>
<trkpt lat="31.7054500" lon="35.4037900">
<ele>76.489998</ele>
<time>2021-11-09T09:08:23.165Z</time>
</trkpt>
<trkpt lat="31.7053700" lon="35.4043900">
<ele>83.750008</ele>
<time>2021-11-09T09:08:23.165Z</time>
</trkpt>
<trkpt lat="31.7059000" lon="35.4047700">
<ele>86.559998</ele>
<time>2021-11-09T09:08:23.165Z</time>
</trkpt>
<trkpt lat="31.7062100" lon="35.4046400">
<ele>85.000000</ele>
<time>2021-11-09T09:08:23.165Z</time>
</trkpt>
<trkpt lat="31.7064800" lon="35.4048600">
<ele>90.340004</ele>
<time>2021-11-09T09:08:23.165Z</time>
</trkpt>
<trkpt lat="31.7067700" lon="35.4050300">
<ele>88.800003</ele>
<time>2021-11-09T09:08:23.165Z</time>
</trkpt>
<trkpt lat="31.7068300" lon="35.4055200">
<ele>87.949997</ele>
<time>2021-11-09T09:08:23.165Z</time>
</trkpt>
<trkpt lat="31.7064600" lon="35.4060800">
<ele>91.489998</ele>
<time>2021-11-09T09:08:23.165Z</time>
</trkpt>
<trkpt lat="31.7062700" lon="35.4068000">
<ele>88.919998</ele>
<time>2021-11-09T09:08:23.165Z</time>
</trkpt>
<trkpt lat="31.7060800" lon="35.4075200">
<ele>90.860001</ele>
<time>2021-11-09T09:08:23.165Z</time>
</trkpt>
<trkpt lat="31.7060600" lon="35.4081500">
<ele>86.720001</ele>
<time>2021-11-09T09:08:23.165Z</time>
</trkpt>
<trkpt lat="31.7060500" lon="35.4087800">
<ele>91.000000</ele>
<time>2021-11-09T09:08:23.165Z</time>
</trkpt>
<trkpt lat="31.7060300" lon="35.4094100">
<ele>94.549995</ele>
<time>2021-11-09T09:08:23.165Z</time>
</trkpt>
<trkpt lat="31.7062600" lon="35.4100100">
<ele>93.389999</ele>
<time>2021-11-09T09:08:23.165Z</time>
</trkpt>
<trkpt lat="31.7064900" lon="35.4106100">
<ele>91.230003</ele>
<time>2021-11-09T09:08:23.165Z</time>
</trkpt>
<trkpt lat="31.7067300" lon="35.4112100">
<ele>93.320000</ele>
<time>2021-11-09T09:08:23.165Z</time>
</trkpt>
<trkpt lat="31.7069600" lon="35.4118100">
<ele>89.949997</ele>
<time>2021-11-09T09:08:23.165Z</time>
</trkpt>
<trkpt lat="31.7072400" lon="35.4123500">
<ele>91.380005</ele>
<time>2021-11-09T09:08:23.165Z</time>
</trkpt>
<trkpt lat="31.7075200" lon="35.4128900">
<ele>97.239998</ele>
<time>2021-11-09T09:08:23.165Z</time>
</trkpt>
<trkpt lat="31.7078100" lon="35.4134200">
<ele>100.820007</ele>
<time>2021-11-09T09:08:23.165Z</time>
</trkpt>
<trkpt lat="31.7080900" lon="35.4139600">
<ele>99.360001</ele>
<time>2021-11-09T09:08:23.165Z</time>
</trkpt>
<trkpt lat="31.7085500" lon="35.4142600">
<ele>98.669998</ele>
<time>2021-11-09T09:08:23.165Z</time>
</trkpt>
<trkpt lat="31.7090000" lon="35.4145600">
<ele>97.599998</ele>
<time>2021-11-09T09:08:23.165Z</time>
</trkpt>
<trkpt lat="31.7095000" lon="35.4149500">
<ele>91.110001</ele>
<time>2021-11-09T09:08:23.165Z</time>
</trkpt>
<trkpt lat="31.7099900" lon="35.4153300">
<ele>87.049995</ele>
<time>2021-11-09T09:08:23.165Z</time>
</trkpt>
<trkpt lat="31.7103900" lon="35.4155800">
<ele>86.670006</ele>
<time>2021-11-09T09:08:23.165Z</time>
</trkpt>
<trkpt lat="31.7107900" lon="35.4158400">
<ele>89.029999</ele>
<time>2021-11-09T09:08:23.165Z</time>
</trkpt>
<trkpt lat="31.7111800" lon="35.4160900">
<ele>92.790001</ele>
<time>2021-11-09T09:08:23.165Z</time>
</trkpt>
<trkpt lat="31.7115800" lon="35.4163400">
<ele>92.930000</ele>
<time>2021-11-09T09:08:23.165Z</time>
</trkpt>
<trkpt lat="31.7119600" lon="35.4166900">
<ele>92.689995</ele>
<time>2021-11-09T09:08:23.165Z</time>
</trkpt>
<trkpt lat="31.7123300" lon="35.4170400">
<ele>86.709999</ele>
<time>2021-11-09T09:08:23.165Z</time>
</trkpt>
<trkpt lat="31.7127100" lon="35.4173800">
<ele>84.700005</ele>
<time>2021-11-09T09:08:23.165Z</time>
</trkpt>
<trkpt lat="31.7130800" lon="35.4177300">
<ele>80.489998</ele>
<time>2021-11-09T09:08:23.165Z</time>
</trkpt>
<trkpt lat="31.7134600" lon="35.4180800">
<ele>77.040001</ele>
<time>2021-11-09T09:08:23.165Z</time>
</trkpt>
<trkpt lat="31.7142500" lon="35.4185200">
<ele>92.440002</ele>
<time>2021-11-09T09:08:23.165Z</time>
</trkpt>
<trkpt lat="31.7147700" lon="35.4186100">
<ele>100.499992</ele>
<time>2021-11-09T09:08:23.165Z</time>
</trkpt>
<trkpt lat="31.7153200" lon="35.4189700">
<ele>99.970001</ele>
<time>2021-11-09T09:08:23.165Z</time>
</trkpt>
<trkpt lat="31.7158700" lon="35.4193300">
<ele>102.449997</ele>
<time>2021-11-09T09:08:23.165Z</time>
</trkpt>
<trkpt lat="31.7167200" lon="35.4196700">
<ele>102.990005</ele>
<time>2021-11-09T09:08:23.165Z</time>
</trkpt>
<trkpt lat="31.7172800" lon="35.4201500">
<ele>104.830002</ele>
<time>2021-11-09T09:08:23.165Z</time>
</trkpt>
<trkpt lat="31.7174000" lon="35.4203900">
<ele>103.930000</ele>
<time>2021-11-09T09:08:23.165Z</time>
</trkpt>
<trkpt lat="31.7174700" lon="35.4207800">
<ele>97.520004</ele>
<time>2021-11-09T09:08:23.165Z</time>
</trkpt>
<trkpt lat="31.7173100" lon="35.4213000">
<ele>98.990005</ele>
<time>2021-11-09T09:08:23.165Z</time>
</trkpt>
<trkpt lat="31.7171400" lon="35.4218100">
<ele>108.269997</ele>
<time>2021-11-09T09:08:23.165Z</time>
</trkpt>
<trkpt lat="31.7168400" lon="35.4225100">
<ele>115.450005</ele>
<time>2021-11-09T09:08:23.165Z</time>
</trkpt>
<trkpt lat="31.7168400" lon="35.4232900">
<ele>114.580002</ele>
<time>2021-11-09T09:08:23.165Z</time>
</trkpt>
<trkpt lat="31.7168300" lon="35.4240600">
<ele>120.690002</ele>
<time>2021-11-09T09:08:23.165Z</time>
</trkpt>
<trkpt lat="31.7169800" lon="35.4247600">
<ele>119.489998</ele>
<time>2021-11-09T09:08:23.165Z</time>
</trkpt>
<trkpt lat="31.7171200" lon="35.4254700">
<ele>110.519997</ele>
<time>2021-11-09T09:08:23.165Z</time>
</trkpt>
<trkpt lat="31.7169800" lon="35.4248000">
<ele>119.590004</ele>
<time>2021-11-09T09:08:23.165Z</time>
</trkpt>
<trkpt lat="31.7168400" lon="35.4241200">
<ele>120.899994</ele>
<time>2021-11-09T09:08:23.165Z</time>
</trkpt>
<trkpt lat="31.7168500" lon="35.4233400">
<ele>114.739998</ele>
<time>2021-11-09T09:08:23.165Z</time>
</trkpt>
<trkpt lat="31.7168500" lon="35.4225600">
<ele>115.349998</ele>
<time>2021-11-09T09:08:23.165Z</time>
</trkpt>
<trkpt lat="31.7170600" lon="35.4220200">
<ele>112.889999</ele>
<time>2021-11-09T09:08:23.165Z</time>
</trkpt>
<trkpt lat="31.7172700" lon="35.4214700">
<ele>101.379997</ele>
<time>2021-11-09T09:08:23.165Z</time>
</trkpt>
<trkpt lat="31.7174700" lon="35.4205400">
<ele>102.269997</ele>
<time>2021-11-09T09:08:23.165Z</time>
</trkpt>
<trkpt lat="31.7171100" lon="35.4199400">
<ele>102.650002</ele>
<time>2021-11-09T09:08:23.165Z</time>
</trkpt>
<trkpt lat="31.7166500" lon="35.4196800">
<ele>102.660004</ele>
<time>2021-11-09T09:08:23.165Z</time>
</trkpt>
<trkpt lat="31.7161800" lon="35.4194300">
<ele>104.099998</ele>
<time>2021-11-09T09:08:23.165Z</time>
</trkpt>
<trkpt lat="31.7157200" lon="35.4191700">
<ele>103.949997</ele>
<time>2021-11-09T09:08:23.165Z</time>
</trkpt>
<trkpt lat="31.7152500" lon="35.4189200">
<ele>99.729996</ele>
<time>2021-11-09T09:08:23.165Z</time>
</trkpt>
<trkpt lat="31.7147900" lon="35.4186600">
<ele>100.649994</ele>
<time>2021-11-09T09:08:23.165Z</time>
</trkpt>
<trkpt lat="31.7143300" lon="35.4185300">
<ele>92.590004</ele>
<time>2021-11-09T09:08:23.165Z</time>
</trkpt>
<trkpt lat="31.7138500" lon="35.4182800">
<ele>79.640007</ele>
<time>2021-11-09T09:08:23.165Z</time>
</trkpt>
<trkpt lat="31.7133700" lon="35.4180300">
<ele>77.659996</ele>
<time>2021-11-09T09:08:23.165Z</time>
</trkpt>
<trkpt lat="31.7129600" lon="35.4176300">
<ele>83.330002</ele>
<time>2021-11-09T09:08:23.165Z</time>
</trkpt>
<trkpt lat="31.7125500" lon="35.4172300">
<ele>82.550003</ele>
<time>2021-11-09T09:08:23.165Z</time>
</trkpt>
<trkpt lat="31.7121400" lon="35.4168200">
<ele>90.639999</ele>
<time>2021-11-09T09:08:23.165Z</time>
</trkpt>
<trkpt lat="31.7117300" lon="35.4164200">
<ele>93.540001</ele>
<time>2021-11-09T09:08:23.165Z</time>
</trkpt>
<trkpt lat="31.7112500" lon="35.4161400">
<ele>92.839996</ele>
<time>2021-11-09T09:08:23.165Z</time>
</trkpt>
<trkpt lat="31.7107800" lon="35.4158500">
<ele>89.080002</ele>
<time>2021-11-09T09:08:23.165Z</time>
</trkpt>
<trkpt lat="31.7103000" lon="35.4155700">
<ele>87.799995</ele>
<time>2021-11-09T09:08:23.165Z</time>
</trkpt>
<trkpt lat="31.7098200" lon="35.4152800">
<ele>88.899994</ele>
<time>2021-11-09T09:08:23.165Z</time>
</trkpt>
<trkpt lat="31.7094200" lon="35.4149600">
<ele>91.260002</ele>
<time>2021-11-09T09:08:23.165Z</time>
</trkpt>
<trkpt lat="31.7090200" lon="35.4146400">
<ele>96.790001</ele>
<time>2021-11-09T09:08:23.165Z</time>
</trkpt>
<trkpt lat="31.7085200" lon="35.4142900">
<ele>98.129997</ele>
<time>2021-11-09T09:08:23.165Z</time>
</trkpt>
<trkpt lat="31.7080200" lon="35.4139400">
<ele>100.169998</ele>
<time>2021-11-09T09:08:23.165Z</time>
</trkpt>
<trkpt lat="31.7078100" lon="35.4134700">
<ele>101.160004</ele>
<time>2021-11-09T09:08:23.165Z</time>
</trkpt>
<trkpt lat="31.7076000" lon="35.4130000">
<ele>97.970001</ele>
<time>2021-11-09T09:08:23.165Z</time>
</trkpt>
<trkpt lat="31.7073900" lon="35.4125200">
<ele>93.220001</ele>
<time>2021-11-09T09:08:23.165Z</time>
</trkpt>
<trkpt lat="31.7071800" lon="35.4120500">
<ele>89.889999</ele>
<time>2021-11-09T09:08:23.165Z</time>
</trkpt>
<trkpt lat="31.7069600" lon="35.4115800">
<ele>89.120003</ele>
<time>2021-11-09T09:08:23.165Z</time>
</trkpt>
<trkpt lat="31.7067500" lon="35.4111100">
<ele>92.689995</ele>
<time>2021-11-09T09:08:23.165Z</time>
</trkpt>
<trkpt lat="31.7065400" lon="35.4106300">
<ele>90.760002</ele>
<time>2021-11-09T09:08:23.165Z</time>
</trkpt>
<trkpt lat="31.7063300" lon="35.4101600">
<ele>92.059998</ele>
<time>2021-11-09T09:08:23.165Z</time>
</trkpt>
<trkpt lat="31.7061200" lon="35.4096900">
<ele>95.860001</ele>
<time>2021-11-09T09:08:23.165Z</time>
</trkpt>
<trkpt lat="31.7061000" lon="35.4090100">
<ele>92.790001</ele>
<time>2021-11-09T09:08:23.165Z</time>
</trkpt>
<trkpt lat="31.7060800" lon="35.4083300">
<ele>85.900002</ele>
<time>2021-11-09T09:08:23.165Z</time>
</trkpt>
<trkpt lat="31.7060600" lon="35.4076500">
<ele>90.020004</ele>
<time>2021-11-09T09:08:23.165Z</time>
</trkpt>
<trkpt lat="31.7056900" lon="35.4084400">
<ele>87.239998</ele>
<time>2021-11-09T09:08:23.165Z</time>
</trkpt>
<trkpt lat="31.7057300" lon="35.4085100">
<ele>87.049995</ele>
<time>2021-11-09T09:08:23.165Z</time>
</trkpt>
<trkpt lat="31.7055300" lon="35.4090700">
<ele>89.620003</ele>
<time>2021-11-09T09:08:23.165Z</time>
</trkpt>
<trkpt lat="31.7052700" lon="35.4095900">
<ele>87.870003</ele>
<time>2021-11-09T09:08:23.165Z</time>
</trkpt>
<trkpt lat="31.7049900" lon="35.4099800">
<ele>83.140007</ele>
<time>2021-11-09T09:08:23.165Z</time>
</trkpt>
<trkpt lat="31.7049100" lon="35.4102200">
<ele>81.419998</ele>
<time>2021-11-09T09:08:23.165Z</time>
</trkpt>
<trkpt lat="31.7048600" lon="35.4106800">
<ele>78.099998</ele>
<time>2021-11-09T09:08:23.165Z</time>
</trkpt>
<trkpt lat="31.7049300" lon="35.4113200">
<ele>72.989998</ele>
<time>2021-11-09T09:08:23.165Z</time>
</trkpt>
<trkpt lat="31.7046400" lon="35.4118100">
<ele>66.449997</ele>
<time>2021-11-09T09:08:23.165Z</time>
</trkpt>
<trkpt lat="31.7046600" lon="35.4121100">
<ele>66.389999</ele>
<time>2021-11-09T09:08:23.165Z</time>
</trkpt>
<trkpt lat="31.7048400" lon="35.4127100">
<ele>65.730003</ele>
<time>2021-11-09T09:08:23.165Z</time>
</trkpt>
<trkpt lat="31.7052900" lon="35.4132500">
<ele>60.930000</ele>
<time>2021-11-09T09:08:23.165Z</time>
</trkpt>
<trkpt lat="31.7054500" lon="35.4136500">
<ele>63.189999</ele>
<time>2021-11-09T09:08:23.165Z</time>
</trkpt>
<trkpt lat="31.7060000" lon="35.4140300">
<ele>54.950001</ele>
<time>2021-11-09T09:08:23.165Z</time>
</trkpt>
<trkpt lat="31.7060000" lon="35.4142400">
<ele>53.070000</ele>
<time>2021-11-09T09:08:23.165Z</time>
</trkpt>
<trkpt lat="31.7064100" lon="35.4148300">
<ele>49.820000</ele>
<time>2021-11-09T09:08:23.165Z</time>
</trkpt>
<trkpt lat="31.7065500" lon="35.4154100">
<ele>46.570000</ele>
<time>2021-11-09T09:08:23.165Z</time>
</trkpt>
<trkpt lat="31.7067600" lon="35.4156600">
<ele>43.910000</ele>
<time>2021-11-09T09:08:23.165Z</time>
</trkpt>
<trkpt lat="31.7068800" lon="35.4161400">
<ele>38.860001</ele>
<time>2021-11-09T09:08:23.165Z</time>
</trkpt>
<trkpt lat="31.7070500" lon="35.4163600">
<ele>37.849998</ele>
<time>2021-11-09T09:08:23.165Z</time>
</trkpt>
<trkpt lat="31.7073700" lon="35.4165400">
<ele>35.930000</ele>
<time>2021-11-09T09:08:23.165Z</time>
</trkpt>
<trkpt lat="31.7076400" lon="35.4170500">
<ele>37.950001</ele>
<time>2021-11-09T09:08:23.165Z</time>
</trkpt>
<trkpt lat="31.7078000" lon="35.4172200">
<ele>38.920002</ele>
<time>2021-11-09T09:08:23.165Z</time>
</trkpt>
<trkpt lat="31.7082200" lon="35.4174300">
<ele>34.320000</ele>
<time>2021-11-09T09:08:23.165Z</time>
</trkpt>
<trkpt lat="31.7084700" lon="35.4179800">
<ele>32.549999</ele>
<time>2021-11-09T09:08:23.165Z</time>
</trkpt>
<trkpt lat="31.7090300" lon="35.4183900">
<ele>27.439999</ele>
<time>2021-11-09T09:08:23.165Z</time>
</trkpt>
<trkpt lat="31.7091900" lon="35.4187000">
<ele>19.910002</ele>
<time>2021-11-09T09:08:23.165Z</time>
</trkpt>
<trkpt lat="31.7091400" lon="35.4189200">
<ele>17.250000</ele>
<time>2021-11-09T09:08:23.165Z</time>
</trkpt>
<trkpt lat="31.7092300" lon="35.4193300">
<ele>19.139999</ele>
<time>2021-11-09T09:08:23.165Z</time>
</trkpt>
<trkpt lat="31.7097400" lon="35.4197500">
<ele>17.990000</ele>
<time>2021-11-09T09:08:23.165Z</time>
</trkpt>
<trkpt lat="31.7101400" lon="35.4206400">
<ele>9.260000</ele>
<time>2021-11-09T09:08:23.165Z</time>
</trkpt>
<trkpt lat="31.7104000" lon="35.4209300">
<ele>10.940000</ele>
<time>2021-11-09T09:08:23.165Z</time>
</trkpt>
<trkpt lat="31.7106600" lon="35.4214200">
<ele>12.400000</ele>
<time>2021-11-09T09:08:23.165Z</time>
</trkpt>
<trkpt lat="31.7107100" lon="35.4218700">
<ele>13.240000</ele>
<time>2021-11-09T09:08:23.165Z</time>
</trkpt>
<trkpt lat="31.7106200" lon="35.4226400">
<ele>9.470000</ele>
<time>2021-11-09T09:08:23.165Z</time>
</trkpt>
<trkpt lat="31.7104600" lon="35.4229400">
<ele>8.380000</ele>
<time>2021-11-09T09:08:23.165Z</time>
</trkpt>
<trkpt lat="31.7103200" lon="35.4236900">
<ele>-2.050000</ele>
<time>2021-11-09T09:08:23.165Z</time>
</trkpt>
<trkpt lat="31.7102800" lon="35.4242700">
<ele>-3.580000</ele>
<time>2021-11-09T09:08:23.165Z</time>
</trkpt>
<trkpt lat="31.7102300" lon="35.4248500">
<ele>0.560000</ele>
<time>2021-11-09T09:08:23.165Z</time>
</trkpt>
<trkpt lat="31.7104300" lon="35.4256500">
<ele>-7.430000</ele>
<time>2021-11-09T09:08:23.165Z</time>
</trkpt>
<trkpt lat="31.7105000" lon="35.4263800">
<ele>-15.560000</ele>
<time>2021-11-09T09:08:23.165Z</time>
</trkpt>
<trkpt lat="31.7107200" lon="35.4269400">
<ele>-16.799999</ele>
<time>2021-11-09T09:08:23.165Z</time>
</trkpt>
<trkpt lat="31.7107500" lon="35.4274800">
<ele>-24.030001</ele>
<time>2021-11-09T09:08:23.165Z</time>
</trkpt>
<trkpt lat="31.7108700" lon="35.4277300">
<ele>-23.930000</ele>
<time>2021-11-09T09:08:23.165Z</time>
</trkpt>
<trkpt lat="31.7107500" lon="35.4274600">
<ele>-23.770000</ele>
<time>2021-11-09T09:08:23.165Z</time>
</trkpt>
<trkpt lat="31.7107100" lon="35.4269300">
<ele>-16.850000</ele>
<time>2021-11-09T09:08:23.165Z</time>
</trkpt>
<trkpt lat="31.7107800" lon="35.4271400">
<ele>-19.200001</ele>
<time>2021-11-09T09:08:23.165Z</time>
</trkpt>
<trkpt lat="31.7107400" lon="35.4274600">
<ele>-23.809999</ele>
<time>2021-11-09T09:08:23.165Z</time>
</trkpt>
<trkpt lat="31.7111800" lon="35.4282700">
<ele>-27.660000</ele>
<time>2021-11-09T09:08:23.165Z</time>
</trkpt>
<trkpt lat="31.7111700" lon="35.4285000">
<ele>-28.469999</ele>
<time>2021-11-09T09:08:23.165Z</time>
</trkpt>
<trkpt lat="31.7110600" lon="35.4288500">
<ele>-27.730000</ele>
<time>2021-11-09T09:08:23.165Z</time>
</trkpt>
<trkpt lat="31.7108300" lon="35.4291500">
<ele>-30.879999</ele>
<time>2021-11-09T09:08:23.165Z</time>
</trkpt>
<trkpt lat="31.7110300" lon="35.4295400">
<ele>-29.090002</ele>
<time>2021-11-09T09:08:23.165Z</time>
</trkpt>
<trkpt lat="31.7111100" lon="35.4299700">
<ele>-29.879999</ele>
<time>2021-11-09T09:08:23.165Z</time>
</trkpt>
<trkpt lat="31.7112400" lon="35.4301700">
<ele>-31.190001</ele>
<time>2021-11-09T09:08:23.165Z</time>
</trkpt>
<trkpt lat="31.7113400" lon="35.4305300">
<ele>-33.510002</ele>
<time>2021-11-09T09:08:23.165Z</time>
</trkpt>
<trkpt lat="31.7116400" lon="35.4308300">
<ele>-34.200001</ele>
<time>2021-11-09T09:08:23.165Z</time>
</trkpt>
<trkpt lat="31.7113600" lon="35.4315500">
<ele>-37.950001</ele>
<time>2021-11-09T09:08:23.165Z</time>
</trkpt>
<trkpt lat="31.7114200" lon="35.4314700">
<ele>-37.360001</ele>
<time>2021-11-09T09:08:23.165Z</time>
</trkpt>
<trkpt lat="31.7113500" lon="35.4317800">
<ele>-39.130001</ele>
<time>2021-11-09T09:08:23.165Z</time>
</trkpt>
<trkpt lat="31.7114300" lon="35.4321400">
<ele>-40.220001</ele>
<time>2021-11-09T09:08:23.165Z</time>
</trkpt>
<trkpt lat="31.7113600" lon="35.4323600">
<ele>-40.949997</ele>
<time>2021-11-09T09:08:23.165Z</time>
</trkpt>
<trkpt lat="31.7110900" lon="35.4326600">
<ele>-38.340000</ele>
<time>2021-11-09T09:08:23.165Z</time>
</trkpt>
<trkpt lat="31.7108700" lon="35.4326700">
<ele>-40.600002</ele>
<time>2021-11-09T09:08:23.165Z</time>
</trkpt>
<trkpt lat="31.7106900" lon="35.4328400">
<ele>-44.500000</ele>
<time>2021-11-09T09:08:23.165Z</time>
</trkpt>
<trkpt lat="31.7105800" lon="35.4333400">
<ele>-46.289997</ele>
<time>2021-11-09T09:08:23.165Z</time>
</trkpt>
<trkpt lat="31.7103600" lon="35.4334900">
<ele>-47.649998</ele>
<time>2021-11-09T09:08:23.165Z</time>
</trkpt>
<trkpt lat="31.7102800" lon="35.4336500">
<ele>-47.680000</ele>
<time>2021-11-09T09:08:23.165Z</time>
</trkpt>
<trkpt lat="31.7103600" lon="35.4342000">
<ele>-45.630001</ele>
<time>2021-11-09T09:08:23.165Z</time>
</trkpt>
<trkpt lat="31.7103600" lon="35.4346200">
<ele>-49.259998</ele>
<time>2021-11-09T09:08:23.165Z</time>
</trkpt>
<trkpt lat="31.7103100" lon="35.4351600">
<ele>-49.910000</ele>
<time>2021-11-09T09:08:23.165Z</time>
</trkpt>
<trkpt lat="31.7103200" lon="35.4354500">
<ele>-47.630001</ele>
<time>2021-11-09T09:08:23.165Z</time>
</trkpt>
<trkpt lat="31.7105100" lon="35.4357800">
<ele>-44.770000</ele>
<time>2021-11-09T09:08:23.165Z</time>
</trkpt>
<trkpt lat="31.7104600" lon="35.4361000">
<ele>-45.289997</ele>
<time>2021-11-09T09:08:23.165Z</time>
</trkpt>
<trkpt lat="31.7101700" lon="35.4364000">
<ele>-47.949997</ele>
<time>2021-11-09T09:08:23.165Z</time>
</trkpt>
<trkpt lat="31.7100200" lon="35.4367700">
<ele>-52.480000</ele>
<time>2021-11-09T09:08:23.165Z</time>
</trkpt>
<trkpt lat="31.7100500" lon="35.4371600">
<ele>-52.480000</ele>
<time>2021-11-09T09:08:23.165Z</time>
</trkpt>
<trkpt lat="31.7099400" lon="35.4373800">
<ele>-53.219997</ele>
<time>2021-11-09T09:08:23.165Z</time>
</trkpt>
<trkpt lat="31.7098800" lon="35.4376900">
<ele>-53.040001</ele>
<time>2021-11-09T09:08:23.165Z</time>
</trkpt>
<trkpt lat="31.7097200" lon="35.4379500">
<ele>-54.040001</ele>
<time>2021-11-09T09:08:23.165Z</time>
</trkpt>
<trkpt lat="31.7096700" lon="35.4389800">
<ele>-63.470001</ele>
<time>2021-11-09T09:08:23.165Z</time>
</trkpt>
<trkpt lat="31.7097000" lon="35.4392800">
<ele>-64.779999</ele>
<time>2021-11-09T09:08:23.165Z</time>
</trkpt>
<trkpt lat="31.7095200" lon="35.4395100">
<ele>-67.680000</ele>
<time>2021-11-09T09:08:23.165Z</time>
</trkpt>
<trkpt lat="31.7094900" lon="35.4398700">
<ele>-66.639999</ele>
<time>2021-11-09T09:08:23.165Z</time>
</trkpt>
<trkpt lat="31.7092600" lon="35.4406500">
<ele>-65.420006</ele>
<time>2021-11-09T09:08:23.165Z</time>
</trkpt>
<trkpt lat="31.7091400" lon="35.4408100">
<ele>-66.260002</ele>
<time>2021-11-09T09:08:23.165Z</time>
</trkpt>
<trkpt lat="31.7086500" lon="35.4411300">
<ele>-62.119999</ele>
<time>2021-11-09T09:08:23.165Z</time>
</trkpt>
<trkpt lat="31.7082600" lon="35.4415600">
<ele>-58.200001</ele>
<time>2021-11-09T09:08:23.165Z</time>
</trkpt>
<trkpt lat="31.7078700" lon="35.4419900">
<ele>-63.900002</ele>
<time>2021-11-09T09:08:23.165Z</time>
</trkpt>
<trkpt lat="31.7076900" lon="35.4420800">
<ele>-66.619995</ele>
<time>2021-11-09T09:08:23.165Z</time>
</trkpt>
<trkpt lat="31.7075400" lon="35.4425500">
<ele>-69.169998</ele>
<time>2021-11-09T09:08:23.165Z</time>
</trkpt>
<trkpt lat="31.7069900" lon="35.4429900">
<ele>-74.490005</ele>
<time>2021-11-09T09:08:23.165Z</time>
</trkpt>
<trkpt lat="31.7062500" lon="35.4431500">
<ele>-82.519997</ele>
<time>2021-11-09T09:08:23.165Z</time>
</trkpt>
<trkpt lat="31.7054100" lon="35.4430900">
<ele>-84.039993</ele>
<time>2021-11-09T09:08:23.165Z</time>
</trkpt>
<trkpt lat="31.7052000" lon="35.4437700">
<ele>-80.989998</ele>
<time>2021-11-09T09:08:23.165Z</time>
</trkpt>
<trkpt lat="31.7050900" lon="35.4439600">
<ele>-81.690002</ele>
<time>2021-11-09T09:08:23.165Z</time>
</trkpt>
<trkpt lat="31.7051100" lon="35.4446100">
<ele>-85.079994</ele>
<time>2021-11-09T09:08:23.165Z</time>
</trkpt>
<trkpt lat="31.7047800" lon="35.4450100">
<ele>-84.260002</ele>
<time>2021-11-09T09:08:23.165Z</time>
</trkpt>
<trkpt lat="31.7046700" lon="35.4450800">
<ele>-88.810005</ele>
<time>2021-11-09T09:08:23.165Z</time>
</trkpt>
<trkpt lat="31.7046000" lon="35.4451500">
<ele>-93.459999</ele>
<time>2021-11-09T09:08:23.165Z</time>
</trkpt>
<trkpt lat="31.7049900" lon="35.4447200">
<ele>-85.040001</ele>
<time>2021-11-09T09:08:23.165Z</time>
</trkpt>
<trkpt lat="31.7049600" lon="35.4440100">
<ele>-82.580002</ele>
<time>2021-11-09T09:08:23.165Z</time>
</trkpt>
<trkpt lat="31.7051500" lon="35.4434500">
<ele>-83.349998</ele>
<time>2021-11-09T09:08:23.165Z</time>
</trkpt>
<trkpt lat="31.7052500" lon="35.4433000">
<ele>-83.549995</ele>
<time>2021-11-09T09:08:23.165Z</time>
</trkpt>
<trkpt lat="31.7055600" lon="35.4431200">
<ele>-83.470001</ele>
<time>2021-11-09T09:08:23.165Z</time>
</trkpt>
<trkpt lat="31.7062000" lon="35.4431500">
<ele>-82.700005</ele>
<time>2021-11-09T09:08:23.165Z</time>
</trkpt>
<trkpt lat="31.7068400" lon="35.4430600">
<ele>-76.120003</ele>
<time>2021-11-09T09:08:23.165Z</time>
</trkpt>
<trkpt lat="31.7074400" lon="35.4426200">
<ele>-69.779999</ele>
<time>2021-11-09T09:08:23.165Z</time>
</trkpt>
<trkpt lat="31.7077200" lon="35.4420600">
<ele>-66.329994</ele>
<time>2021-11-09T09:08:23.165Z</time>
</trkpt>
<trkpt lat="31.7079300" lon="35.4417700">
<ele>-62.770000</ele>
<time>2021-11-09T09:08:23.165Z</time>
</trkpt>
<trkpt lat="31.7082700" lon="35.4415000">
<ele>-58.960003</ele>
<time>2021-11-09T09:08:23.165Z</time>
</trkpt>
<trkpt lat="31.7085900" lon="35.4411300">
<ele>-61.860001</ele>
<time>2021-11-09T09:08:23.165Z</time>
</trkpt>
<trkpt lat="31.7089800" lon="35.4409100">
<ele>-65.930000</ele>
<time>2021-11-09T09:08:23.165Z</time>
</trkpt>
<trkpt lat="31.7091600" lon="35.4406900">
<ele>-67.059998</ele>
<time>2021-11-09T09:08:23.165Z</time>
</trkpt>
<trkpt lat="31.7094200" lon="35.4398500">
<ele>-67.689995</ele>
<time>2021-11-09T09:08:23.165Z</time>
</trkpt>
<trkpt lat="31.7094400" lon="35.4395800">
<ele>-68.500000</ele>
<time>2021-11-09T09:08:23.165Z</time>
</trkpt>
<trkpt lat="31.7096500" lon="35.4393500">
<ele>-65.790001</ele>
<time>2021-11-09T09:08:23.165Z</time>
</trkpt>
<trkpt lat="31.7096600" lon="35.4387300">
<ele>-61.180000</ele>
<time>2021-11-09T09:08:23.165Z</time>
</trkpt>
<trkpt lat="31.7096700" lon="35.4381200">
<ele>-55.500000</ele>
<time>2021-11-09T09:08:23.165Z</time>
</trkpt>
<trkpt lat="31.7098500" lon="35.4377800">
<ele>-53.080002</ele>
<time>2021-11-09T09:08:23.165Z</time>
</trkpt>
<trkpt lat="31.7099100" lon="35.4374300">
<ele>-53.320000</ele>
<time>2021-11-09T09:08:23.165Z</time>
</trkpt>
<trkpt lat="31.7100300" lon="35.4372900">
<ele>-52.839996</ele>
<time>2021-11-09T09:08:23.165Z</time>
</trkpt>
<trkpt lat="31.7100000" lon="35.4367900">
<ele>-53.000004</ele>
<time>2021-11-09T09:08:23.165Z</time>
</trkpt>
<trkpt lat="31.7103500" lon="35.4363600">
<ele>-46.080002</ele>
<time>2021-11-09T09:08:23.165Z</time>
</trkpt>
<trkpt lat="31.7105100" lon="35.4358900">
<ele>-45.010002</ele>
<time>2021-11-09T09:08:23.165Z</time>
</trkpt>
<trkpt lat="31.7106300" lon="35.4357600">
<ele>-45.129997</ele>
<time>2021-11-09T09:08:23.165Z</time>
</trkpt>
<trkpt lat="31.7108200" lon="35.4357600">
<ele>-46.140003</ele>
<time>2021-11-09T09:08:23.165Z</time>
</trkpt>
<trkpt lat="31.7112800" lon="35.4361000">
<ele>-48.009998</ele>
<time>2021-11-09T09:08:23.165Z</time>
</trkpt>
<trkpt lat="31.7115900" lon="35.4364300">
<ele>-46.430000</ele>
<time>2021-11-09T09:08:23.165Z</time>
</trkpt>
<trkpt lat="31.7118600" lon="35.4366000">
<ele>-44.070000</ele>
<time>2021-11-09T09:08:23.165Z</time>
</trkpt>
<trkpt lat="31.7123400" lon="35.4370200">
<ele>-43.030003</ele>
<time>2021-11-09T09:08:23.165Z</time>
</trkpt>
<trkpt lat="31.7125600" lon="35.4374500">
<ele>-40.540001</ele>
<time>2021-11-09T09:08:23.165Z</time>
</trkpt>
<trkpt lat="31.7127600" lon="35.4376300">
<ele>-40.910000</ele>
<time>2021-11-09T09:08:23.165Z</time>
</trkpt>
<trkpt lat="31.7133300" lon="35.4376600">
<ele>-39.450001</ele>
<time>2021-11-09T09:08:23.165Z</time>
</trkpt>
<trkpt lat="31.7139000" lon="35.4376800">
<ele>-43.299999</ele>
<time>2021-11-09T09:08:23.165Z</time>
</trkpt>
<trkpt lat="31.7146300" lon="35.4375100">
<ele>-47.340000</ele>
<time>2021-11-09T09:08:23.165Z</time>
</trkpt>
<trkpt lat="31.7149600" lon="35.4375800">
<ele>-49.709999</ele>
<time>2021-11-09T09:08:23.165Z</time>
</trkpt>
<trkpt lat="31.7157400" lon="35.4373800">
<ele>-41.720001</ele>
<time>2021-11-09T09:08:23.165Z</time>
</trkpt>
<trkpt lat="31.7163100" lon="35.4374300">
<ele>-37.820000</ele>
<time>2021-11-09T09:08:23.165Z</time>
</trkpt>
<trkpt lat="31.7166400" lon="35.4373300">
<ele>-36.860001</ele>
<time>2021-11-09T09:08:23.165Z</time>
</trkpt>
<trkpt lat="31.7172800" lon="35.4368800">
<ele>-32.820000</ele>
<time>2021-11-09T09:08:23.165Z</time>
</trkpt>
<trkpt lat="31.7178400" lon="35.4369000">
<ele>-29.700001</ele>
<time>2021-11-09T09:08:23.165Z</time>
</trkpt>
<trkpt lat="31.7183000" lon="35.4367500">
<ele>-30.900000</ele>
<time>2021-11-09T09:08:23.165Z</time>
</trkpt>
<trkpt lat="31.7184900" lon="35.4368100">
<ele>-34.540001</ele>
<time>2021-11-09T09:08:23.165Z</time>
</trkpt>
<trkpt lat="31.7190700" lon="35.4371700">
<ele>-40.930000</ele>
<time>2021-11-09T09:08:23.165Z</time>
</trkpt>
<trkpt lat="31.7193500" lon="35.4377600">
<ele>-45.170002</ele>
<time>2021-11-09T09:08:23.165Z</time>
</trkpt>
<trkpt lat="31.7199100" lon="35.4376500">
<ele>-44.299999</ele>
<time>2021-11-09T09:08:23.165Z</time>
</trkpt>
<trkpt lat="31.7206300" lon="35.4381500">
<ele>-40.760002</ele>
<time>2021-11-09T09:08:23.165Z</time>
</trkpt>
<trkpt lat="31.7207900" lon="35.4381900">
<ele>-38.580002</ele>
<time>2021-11-09T09:08:23.165Z</time>
</trkpt>
<trkpt lat="31.7210100" lon="35.4380300">
<ele>-36.480000</ele>
<time>2021-11-09T09:08:23.165Z</time>
</trkpt>
<trkpt lat="31.7211800" lon="35.4379800">
<ele>-35.200001</ele>
<time>2021-11-09T09:08:23.165Z</time>
</trkpt>
<trkpt lat="31.7219600" lon="35.4382500">
<ele>-30.740000</ele>
<time>2021-11-09T09:08:23.165Z</time>
</trkpt>
<trkpt lat="31.7222200" lon="35.4382400">
<ele>-36.270000</ele>
<time>2021-11-09T09:08:23.165Z</time>
</trkpt>
<trkpt lat="31.7224800" lon="35.4382900">
<ele>-40.789997</ele>
<time>2021-11-09T09:08:23.165Z</time>
</trkpt>
<trkpt lat="31.7228500" lon="35.4382400">
<ele>-42.079998</ele>
<time>2021-11-09T09:08:23.165Z</time>
</trkpt>
<trkpt lat="31.7229300" lon="35.4383200">
<ele>-43.350002</ele>
<time>2021-11-09T09:08:23.165Z</time>
</trkpt>
<trkpt lat="31.7231600" lon="35.4383600">
<ele>-43.459999</ele>
<time>2021-11-09T09:08:23.165Z</time>
</trkpt>
<trkpt lat="31.7232300" lon="35.4384300">
<ele>-43.350002</ele>
<time>2021-11-09T09:08:23.165Z</time>
</trkpt>
<trkpt lat="31.7233700" lon="35.4383800">
<ele>-41.859997</ele>
<time>2021-11-09T09:08:23.165Z</time>
</trkpt>
<trkpt lat="31.7236200" lon="35.4385300">
<ele>-39.279999</ele>
<time>2021-11-09T09:08:23.165Z</time>
</trkpt>
<trkpt lat="31.7241500" lon="35.4385600">
<ele>-41.000000</ele>
<time>2021-11-09T09:08:23.165Z</time>
</trkpt>
<trkpt lat="31.7243600" lon="35.4388600">
<ele>-44.540001</ele>
<time>2021-11-09T09:08:23.165Z</time>
</trkpt>
<trkpt lat="31.7244200" lon="35.4391900">
<ele>-47.730000</ele>
<time>2021-11-09T09:08:23.165Z</time>
</trkpt>
<trkpt lat="31.7246000" lon="35.4396300">
<ele>-52.209999</ele>
<time>2021-11-09T09:08:23.165Z</time>
</trkpt>
<trkpt lat="31.7246500" lon="35.4399800">
<ele>-52.750000</ele>
<time>2021-11-09T09:08:23.165Z</time>
</trkpt>
<trkpt lat="31.7247700" lon="35.4402900">
<ele>-57.350002</ele>
<time>2021-11-09T09:08:23.165Z</time>
</trkpt>
<trkpt lat="31.7247400" lon="35.4407300">
<ele>-57.230000</ele>
<time>2021-11-09T09:08:23.165Z</time>
</trkpt>
<trkpt lat="31.7247900" lon="35.4409400">
<ele>-58.740002</ele>
<time>2021-11-09T09:08:23.165Z</time>
</trkpt>
<trkpt lat="31.7248900" lon="35.4411000">
<ele>-61.340000</ele>
<time>2021-11-09T09:08:23.165Z</time>
</trkpt>
<trkpt lat="31.7251500" lon="35.4412700">
<ele>-61.059998</ele>
<time>2021-11-09T09:08:23.165Z</time>
</trkpt>
<trkpt lat="31.7252900" lon="35.4415800">
<ele>-60.059998</ele>
<time>2021-11-09T09:08:23.165Z</time>
</trkpt>
<trkpt lat="31.7253200" lon="35.4418500">
<ele>-62.980003</ele>
<time>2021-11-09T09:08:23.165Z</time>
</trkpt>
<trkpt lat="31.7254100" lon="35.4419500">
<ele>-64.019997</ele>
<time>2021-11-09T09:08:23.165Z</time>
</trkpt>
<trkpt lat="31.7256000" lon="35.4421100">
<ele>-65.779999</ele>
<time>2021-11-09T09:08:23.165Z</time>
</trkpt>
<trkpt lat="31.7259900" lon="35.4422700">
<ele>-75.190002</ele>
<time>2021-11-09T09:08:23.165Z</time>
</trkpt>
<trkpt lat="31.7262000" lon="35.4428700">
<ele>-73.989998</ele>
<time>2021-11-09T09:08:23.165Z</time>
</trkpt>
<trkpt lat="31.7264600" lon="35.4432200">
<ele>-77.150002</ele>
<time>2021-11-09T09:08:23.165Z</time>
</trkpt>
<trkpt lat="31.7266700" lon="35.4433700">
<ele>-79.960007</ele>
<time>2021-11-09T09:08:23.165Z</time>
</trkpt>
<trkpt lat="31.7270000" lon="35.4434900">
<ele>-75.919998</ele>
<time>2021-11-09T09:08:23.165Z</time>
</trkpt>
<trkpt lat="31.7273200" lon="35.4441200">
<ele>-74.769997</ele>
<time>2021-11-09T09:08:23.165Z</time>
</trkpt>
<trkpt lat="31.7275900" lon="35.4443300">
<ele>-77.099998</ele>
<time>2021-11-09T09:08:23.165Z</time>
</trkpt>
<trkpt lat="31.7278500" lon="35.4443900">
<ele>-76.700005</ele>
<time>2021-11-09T09:08:23.165Z</time>
</trkpt>
<trkpt lat="31.7283800" lon="35.4446700">
<ele>-77.290001</ele>
<time>2021-11-09T09:08:23.165Z</time>
</trkpt>
<trkpt lat="31.7289200" lon="35.4448700">
<ele>-74.750000</ele>
<time>2021-11-09T09:08:23.165Z</time>
</trkpt>
<trkpt lat="31.7293100" lon="35.4451000">
<ele>-67.689995</ele>
<time>2021-11-09T09:08:23.165Z</time>
</trkpt>
<trkpt lat="31.7295700" lon="35.4451600">
<ele>-67.009995</ele>
<time>2021-11-09T09:08:23.165Z</time>
</trkpt>
<trkpt lat="31.7300900" lon="35.4450700">
<ele>-70.239998</ele>
<time>2021-11-09T09:08:23.165Z</time>
</trkpt>
<trkpt lat="31.7306000" lon="35.4452100">
<ele>-70.990005</ele>
<time>2021-11-09T09:08:23.165Z</time>
</trkpt>
<trkpt lat="31.7311000" lon="35.4453400">
<ele>-68.830002</ele>
<time>2021-11-09T09:08:23.165Z</time>
</trkpt>
<trkpt lat="31.7311900" lon="35.4455900">
<ele>-68.459999</ele>
<time>2021-11-09T09:08:23.165Z</time>
</trkpt>
<trkpt lat="31.7310800" lon="35.4460600">
<ele>-69.110001</ele>
<time>2021-11-09T09:08:23.165Z</time>
</trkpt>
<trkpt lat="31.7310500" lon="35.4466300">
<ele>-67.099998</ele>
<time>2021-11-09T09:08:23.165Z</time>
</trkpt>
<trkpt lat="31.7311600" lon="35.4473100">
<ele>-67.900002</ele>
<time>2021-11-09T09:08:23.165Z</time>
</trkpt>
<trkpt lat="31.7312600" lon="35.4479900">
<ele>-62.649998</ele>
<time>2021-11-09T09:08:23.165Z</time>
</trkpt>
<trkpt lat="31.7310800" lon="35.4483100">
<ele>-60.200001</ele>
<time>2021-11-09T09:08:23.165Z</time>
</trkpt>
<trkpt lat="31.7305700" lon="35.4488400">
<ele>-66.029999</ele>
<time>2021-11-09T09:08:23.165Z</time>
</trkpt>
<trkpt lat="31.7303700" lon="35.4489800">
<ele>-65.409996</ele>
<time>2021-11-09T09:08:23.165Z</time>
</trkpt>
<trkpt lat="31.7300800" lon="35.4490800">
<ele>-66.790001</ele>
<time>2021-11-09T09:08:23.165Z</time>
</trkpt>
<trkpt lat="31.7297500" lon="35.4490800">
<ele>-67.630005</ele>
<time>2021-11-09T09:08:23.165Z</time>
</trkpt>
<trkpt lat="31.7293800" lon="35.4489800">
<ele>-71.269997</ele>
<time>2021-11-09T09:08:23.165Z</time>
</trkpt>
<trkpt lat="31.7290200" lon="35.4490600">
<ele>-75.930000</ele>
<time>2021-11-09T09:08:23.165Z</time>
</trkpt>
<trkpt lat="31.7289400" lon="35.4492200">
<ele>-79.400002</ele>
<time>2021-11-09T09:08:23.165Z</time>
</trkpt>
<trkpt lat="31.7292600" lon="35.4490300">
<ele>-73.019997</ele>
<time>2021-11-09T09:08:23.165Z</time>
</trkpt>
<trkpt lat="31.7297900" lon="35.4491000">
<ele>-67.639999</ele>
<time>2021-11-09T09:08:23.165Z</time>
</trkpt>
<trkpt lat="31.7302500" lon="35.4490200">
<ele>-64.989998</ele>
<time>2021-11-09T09:08:23.165Z</time>
</trkpt>
<trkpt lat="31.7304200" lon="35.4489000">
<ele>-64.760002</ele>
<time>2021-11-09T09:08:23.165Z</time>
</trkpt>
<trkpt lat="31.7306600" lon="35.4485600">
<ele>-61.930000</ele>
<time>2021-11-09T09:08:23.165Z</time>
</trkpt>
<trkpt lat="31.7310300" lon="35.4482300">
<ele>-60.660000</ele>
<time>2021-11-09T09:08:23.165Z</time>
</trkpt>
<trkpt lat="31.7311200" lon="35.4480600">
<ele>-61.049999</ele>
<time>2021-11-09T09:08:23.165Z</time>
</trkpt>
<trkpt lat="31.7311400" lon="35.4478400">
<ele>-63.459999</ele>
<time>2021-11-09T09:08:23.165Z</time>
</trkpt>
<trkpt lat="31.7310600" lon="35.4471800">
<ele>-67.839996</ele>
<time>2021-11-09T09:08:23.165Z</time>
</trkpt>
<trkpt lat="31.7309700" lon="35.4465100">
<ele>-67.279999</ele>
<time>2021-11-09T09:08:23.165Z</time>
</trkpt>
<trkpt lat="31.7310900" lon="35.4459900">
<ele>-69.430000</ele>
<time>2021-11-09T09:08:23.165Z</time>
</trkpt>
<trkpt lat="31.7312000" lon="35.4454700">
<ele>-68.730003</ele>
<time>2021-11-09T09:08:23.165Z</time>
</trkpt>
<trkpt lat="31.7313600" lon="35.4454400">
<ele>-69.680000</ele>
<time>2021-11-09T09:08:23.165Z</time>
</trkpt>
<trkpt lat="31.7316500" lon="35.4452600">
<ele>-72.200005</ele>
<time>2021-11-09T09:08:23.165Z</time>
</trkpt>
<trkpt lat="31.7322000" lon="35.4451200">
<ele>-80.769997</ele>
<time>2021-11-09T09:08:23.165Z</time>
</trkpt>
<trkpt lat="31.7327900" lon="35.4450800">
<ele>-82.220001</ele>
<time>2021-11-09T09:08:23.165Z</time>
</trkpt>
<trkpt lat="31.7331600" lon="35.4448900">
<ele>-88.959999</ele>
<time>2021-11-09T09:08:23.165Z</time>
</trkpt>
<trkpt lat="31.7338200" lon="35.4447800">
<ele>-98.659996</ele>
<time>2021-11-09T09:08:23.165Z</time>
</trkpt>
<trkpt lat="31.7340200" lon="35.4446300">
<ele>-100.279999</ele>
<time>2021-11-09T09:08:23.165Z</time>
</trkpt>
<trkpt lat="31.7340800" lon="35.4446600">
<ele>-100.830002</ele>
<time>2021-11-09T09:08:23.165Z</time>
</trkpt>
<trkpt lat="31.7342500" lon="35.4446100">
<ele>-100.169998</ele>
<time>2021-11-09T09:08:23.165Z</time>
</trkpt>
<trkpt lat="31.7343000" lon="35.4443800">
<ele>-97.259995</ele>
<time>2021-11-09T09:08:23.165Z</time>
</trkpt>
<trkpt lat="31.7342400" lon="35.4439400">
<ele>-95.419998</ele>
<time>2021-11-09T09:08:23.165Z</time>
</trkpt>
<trkpt lat="31.7343300" lon="35.4436100">
<ele>-93.240005</ele>
<time>2021-11-09T09:08:23.165Z</time>
</trkpt>
<trkpt lat="31.7346600" lon="35.4431800">
<ele>-90.320000</ele>
<time>2021-11-09T09:08:23.165Z</time>
</trkpt>
<trkpt lat="31.7347300" lon="35.4429200">
<ele>-89.900002</ele>
<time>2021-11-09T09:08:23.165Z</time>
</trkpt>
<trkpt lat="31.7349800" lon="35.4425900">
<ele>-86.919998</ele>
<time>2021-11-09T09:08:23.165Z</time>
</trkpt>
<trkpt lat="31.7351300" lon="35.4422500">
<ele>-87.820000</ele>
<time>2021-11-09T09:08:23.165Z</time>
</trkpt>
<trkpt lat="31.7353300" lon="35.4420300">
<ele>-89.250000</ele>
<time>2021-11-09T09:08:23.165Z</time>
</trkpt>
<trkpt lat="31.7355500" lon="35.4419500">
<ele>-87.079994</ele>
<time>2021-11-09T09:08:23.165Z</time>
</trkpt>
<trkpt lat="31.7358200" lon="35.4414600">
<ele>-88.350006</ele>
<time>2021-11-09T09:08:23.165Z</time>
</trkpt>
<trkpt lat="31.7362200" lon="35.4410000">
<ele>-85.109993</ele>
<time>2021-11-09T09:08:23.165Z</time>
</trkpt>
<trkpt lat="31.7364700" lon="35.4405400">
<ele>-86.750000</ele>
<time>2021-11-09T09:08:23.165Z</time>
</trkpt>
<trkpt lat="31.7365900" lon="35.4400700">
<ele>-87.089996</ele>
<time>2021-11-09T09:08:23.165Z</time>
</trkpt>
<trkpt lat="31.7373600" lon="35.4395500">
<ele>-84.809998</ele>
<time>2021-11-09T09:08:23.165Z</time>
</trkpt>
<trkpt lat="31.7375500" lon="35.4392300">
<ele>-86.960007</ele>
<time>2021-11-09T09:08:23.165Z</time>
</trkpt>
<trkpt lat="31.7379200" lon="35.4390900">
<ele>-87.750000</ele>
<time>2021-11-09T09:08:23.165Z</time>
</trkpt>
<trkpt lat="31.7382300" lon="35.4387400">
<ele>-91.840004</ele>
<time>2021-11-09T09:08:23.165Z</time>
</trkpt>
<trkpt lat="31.7381900" lon="35.4385600">
<ele>-93.919998</ele>
<time>2021-11-09T09:08:23.165Z</time>
</trkpt>
<trkpt lat="31.7379900" lon="35.4383800">
<ele>-96.620003</ele>
<time>2021-11-09T09:08:23.165Z</time>
</trkpt>
<trkpt lat="31.7379200" lon="35.4382200">
<ele>-98.629997</ele>
<time>2021-11-09T09:08:23.165Z</time>
</trkpt>
<trkpt lat="31.7378400" lon="35.4378100">
<ele>-103.650002</ele>
<time>2021-11-09T09:08:23.165Z</time>
</trkpt>
<trkpt lat="31.7378600" lon="35.4372900">
<ele>-103.760002</ele>
<time>2021-11-09T09:08:23.165Z</time>
</trkpt>
<trkpt lat="31.7383000" lon="35.4370100">
<ele>-106.669998</ele>
<time>2021-11-09T09:08:23.165Z</time>
</trkpt>
<trkpt lat="31.7387300" lon="35.4367200">
<ele>-99.950005</ele>
<time>2021-11-09T09:08:23.165Z</time>
</trkpt>
<trkpt lat="31.7391200" lon="35.4366200">
<ele>-98.169998</ele>
<time>2021-11-09T09:08:23.165Z</time>
</trkpt>
<trkpt lat="31.7393200" lon="35.4365100">
<ele>-95.779999</ele>
<time>2021-11-09T09:08:23.165Z</time>
</trkpt>
<trkpt lat="31.7401300" lon="35.4364300">
<ele>-91.000000</ele>
<time>2021-11-09T09:08:23.165Z</time>
</trkpt>
<trkpt lat="31.7401700" lon="35.4363900">
<ele>-91.230003</ele>
<time>2021-11-09T09:08:23.165Z</time>
</trkpt>
<trkpt lat="31.7405200" lon="35.4365900">
<ele>-100.570000</ele>
<time>2021-11-09T09:08:23.165Z</time>
</trkpt>
<trkpt lat="31.7407500" lon="35.4369700">
<ele>-105.059998</ele>
<time>2021-11-09T09:08:23.165Z</time>
</trkpt>
<trkpt lat="31.7409100" lon="35.4376300">
<ele>-106.059998</ele>
<time>2021-11-09T09:08:23.165Z</time>
</trkpt>
<trkpt lat="31.7408200" lon="35.4382500">
<ele>-108.689995</ele>
<time>2021-11-09T09:08:23.165Z</time>
</trkpt>
<trkpt lat="31.7411300" lon="35.4387200">
<ele>-103.770004</ele>
<time>2021-11-09T09:08:23.165Z</time>
</trkpt>
<trkpt lat="31.7411600" lon="35.4393600">
<ele>-102.419998</ele>
<time>2021-11-09T09:08:23.165Z</time>
</trkpt>
<trkpt lat="31.7412400" lon="35.4395900">
<ele>-102.619995</ele>
<time>2021-11-09T09:08:23.165Z</time>
</trkpt>
<trkpt lat="31.7414500" lon="35.4399000">
<ele>-102.960007</ele>
<time>2021-11-09T09:08:23.165Z</time>
</trkpt>
<trkpt lat="31.7419300" lon="35.4402300">
<ele>-93.110001</ele>
<time>2021-11-09T09:08:23.165Z</time>
</trkpt>
<trkpt lat="31.7423800" lon="35.4410600">
<ele>-93.919998</ele>
<time>2021-11-09T09:08:23.165Z</time>
</trkpt>
<trkpt lat="31.7425900" lon="35.4413000">
<ele>-92.409996</ele>
<time>2021-11-09T09:08:23.165Z</time>
</trkpt>
<trkpt lat="31.7428900" lon="35.4415500">
<ele>-95.929993</ele>
<time>2021-11-09T09:08:23.165Z</time>
</trkpt>
<trkpt lat="31.7433700" lon="35.4417900">
<ele>-99.220001</ele>
<time>2021-11-09T09:08:23.165Z</time>
</trkpt>
<trkpt lat="31.7436200" lon="35.4420400">
<ele>-102.360001</ele>
<time>2021-11-09T09:08:23.165Z</time>
</trkpt>
<trkpt lat="31.7437300" lon="35.4422300">
<ele>-101.779999</ele>
<time>2021-11-09T09:08:23.165Z</time>
</trkpt>
<trkpt lat="31.7438900" lon="35.4428500">
<ele>-99.000000</ele>
<time>2021-11-09T09:08:23.165Z</time>
</trkpt>
<trkpt lat="31.7440700" lon="35.4431900">
<ele>-99.480003</ele>
<time>2021-11-09T09:08:23.165Z</time>
</trkpt>
<trkpt lat="31.7440700" lon="35.4434600">
<ele>-99.250000</ele>
<time>2021-11-09T09:08:23.165Z</time>
</trkpt>
<trkpt lat="31.7442100" lon="35.4438400">
<ele>-95.099998</ele>
<time>2021-11-09T09:08:23.165Z</time>
</trkpt>
<trkpt lat="31.7442500" lon="35.4444900">
<ele>-92.800003</ele>
<time>2021-11-09T09:08:23.165Z</time>
</trkpt>
<trkpt lat="31.7443400" lon="35.4446600">
<ele>-93.339996</ele>
<time>2021-11-09T09:08:23.165Z</time>
</trkpt>
<trkpt lat="31.7444900" lon="35.4447600">
<ele>-93.690002</ele>
<time>2021-11-09T09:08:23.165Z</time>
</trkpt>
<trkpt lat="31.7445400" lon="35.4449900">
<ele>-94.600006</ele>
<time>2021-11-09T09:08:23.165Z</time>
</trkpt>
<trkpt lat="31.7446700" lon="35.4451700">
<ele>-94.570007</ele>
<time>2021-11-09T09:08:23.165Z</time>
</trkpt>
<trkpt lat="31.7451000" lon="35.4454100">
<ele>-89.889999</ele>
<time>2021-11-09T09:08:23.165Z</time>
</trkpt>
<trkpt lat="31.7455400" lon="35.4456600">
<ele>-87.880005</ele>
<time>2021-11-09T09:08:23.165Z</time>
</trkpt>
<trkpt lat="31.7459700" lon="35.4459000">
<ele>-86.230003</ele>
<time>2021-11-09T09:08:23.165Z</time>
</trkpt>
<trkpt lat="31.7467300" lon="35.4459000">
<ele>-80.900002</ele>
<time>2021-11-09T09:08:23.165Z</time>
</trkpt>
<trkpt lat="31.7473200" lon="35.4459700">
<ele>-78.800003</ele>
<time>2021-11-09T09:08:23.165Z</time>
</trkpt>
<trkpt lat="31.7479100" lon="35.4460400">
<ele>-80.229996</ele>
<time>2021-11-09T09:08:23.165Z</time>
</trkpt>
<trkpt lat="31.7480400" lon="35.4461100">
<ele>-80.940002</ele>
<time>2021-11-09T09:08:23.165Z</time>
</trkpt>
<trkpt lat="31.7484700" lon="35.4466600">
<ele>-86.459999</ele>
<time>2021-11-09T09:08:23.165Z</time>
</trkpt>
<trkpt lat="31.7488900" lon="35.4472000">
<ele>-88.830002</ele>
<time>2021-11-09T09:08:23.165Z</time>
</trkpt>
<trkpt lat="31.7489000" lon="35.4475200">
<ele>-87.959999</ele>
<time>2021-11-09T09:08:23.165Z</time>
</trkpt>
<trkpt lat="31.7492000" lon="35.4480800">
<ele>-85.610001</ele>
<time>2021-11-09T09:08:23.165Z</time>
</trkpt>
<trkpt lat="31.7495800" lon="35.4483600">
<ele>-86.050003</ele>
<time>2021-11-09T09:08:23.165Z</time>
</trkpt>
<trkpt lat="31.7498100" lon="35.4484700">
<ele>-88.020004</ele>
<time>2021-11-09T09:08:23.165Z</time>
</trkpt>
<trkpt lat="31.7499900" lon="35.4486900">
<ele>-88.589996</ele>
<time>2021-11-09T09:08:23.165Z</time>
</trkpt>
<trkpt lat="31.7501000" lon="35.4491200">
<ele>-91.550003</ele>
<time>2021-11-09T09:08:23.165Z</time>
</trkpt>
<trkpt lat="31.7502900" lon="35.4494100">
<ele>-93.870003</ele>
<time>2021-11-09T09:08:23.165Z</time>
</trkpt>
<trkpt lat="31.7508600" lon="35.4496700">
<ele>-97.360001</ele>
<time>2021-11-09T09:08:23.165Z</time>
</trkpt>
<trkpt lat="31.7511700" lon="35.4496400">
<ele>-97.879997</ele>
<time>2021-11-09T09:08:23.165Z</time>
</trkpt>
<trkpt lat="31.7513400" lon="35.4497700">
<ele>-96.989998</ele>
<time>2021-11-09T09:08:23.165Z</time>
</trkpt>
<trkpt lat="31.7517300" lon="35.4498200">
<ele>-89.900002</ele>
<time>2021-11-09T09:08:23.165Z</time>
</trkpt>
<trkpt lat="31.7519900" lon="35.4497800">
<ele>-88.650002</ele>
<time>2021-11-09T09:08:23.165Z</time>
</trkpt>
<trkpt lat="31.7523700" lon="35.4496200">
<ele>-89.110001</ele>
<time>2021-11-09T09:08:23.165Z</time>
</trkpt>
<trkpt lat="31.7527900" lon="35.4496600">
<ele>-86.709999</ele>
<time>2021-11-09T09:08:23.165Z</time>
</trkpt>
<trkpt lat="31.7530200" lon="35.4497900">
<ele>-86.099998</ele>
<time>2021-11-09T09:08:23.165Z</time>
</trkpt>
<trkpt lat="31.7533000" lon="35.4501100">
<ele>-84.139999</ele>
<time>2021-11-09T09:08:23.165Z</time>
</trkpt>
<trkpt lat="31.7537400" lon="35.4504000">
<ele>-82.090004</ele>
<time>2021-11-09T09:08:23.165Z</time>
</trkpt>
<trkpt lat="31.7543700" lon="35.4505700">
<ele>-84.060005</ele>
<time>2021-11-09T09:08:23.165Z</time>
</trkpt>
<trkpt lat="31.7549900" lon="35.4507400">
<ele>-90.099998</ele>
<time>2021-11-09T09:08:23.165Z</time>
</trkpt>
<trkpt lat="31.7554000" lon="35.4510700">
<ele>-90.749992</ele>
<time>2021-11-09T09:08:23.165Z</time>
</trkpt>
<trkpt lat="31.7558000" lon="35.4513900">
<ele>-94.880005</ele>
<time>2021-11-09T09:08:23.165Z</time>
</trkpt>
<trkpt lat="31.7563500" lon="35.4515500">
<ele>-96.919998</ele>
<time>2021-11-09T09:08:23.165Z</time>
</trkpt>
<trkpt lat="31.7568600" lon="35.4517800">
<ele>-96.629997</ele>
<time>2021-11-09T09:08:23.165Z</time>
</trkpt>
<trkpt lat="31.7570600" lon="35.4519600">
<ele>-98.449997</ele>
<time>2021-11-09T09:08:23.165Z</time>
</trkpt>
<trkpt lat="31.7573700" lon="35.4518400">
<ele>-96.250008</ele>
<time>2021-11-09T09:08:23.165Z</time>
</trkpt>
<trkpt lat="31.7577100" lon="35.4520400">
<ele>-95.599998</ele>
<time>2021-11-09T09:08:23.165Z</time>
</trkpt>
<trkpt lat="31.7578700" lon="35.4518900">
<ele>-94.989998</ele>
<time>2021-11-09T09:08:23.165Z</time>
</trkpt>
<trkpt lat="31.7586100" lon="35.4516300">
<ele>-85.419998</ele>
<time>2021-11-09T09:08:23.165Z</time>
</trkpt>
<trkpt lat="31.7591200" lon="35.4516100">
<ele>-82.909996</ele>
<time>2021-11-09T09:08:23.165Z</time>
</trkpt>
<trkpt lat="31.7596200" lon="35.4515900">
<ele>-83.940002</ele>
<time>2021-11-09T09:08:23.165Z</time>
</trkpt>
<trkpt lat="31.7600300" lon="35.4515800">
<ele>-77.630005</ele>
<time>2021-11-09T09:08:23.165Z</time>
</trkpt>
<trkpt lat="31.7602400" lon="35.4516000">
<ele>-77.860001</ele>
<time>2021-11-09T09:08:23.165Z</time>
</trkpt>
<trkpt lat="31.7610600" lon="35.4519000">
<ele>-70.739998</ele>
<time>2021-11-09T09:08:23.165Z</time>
</trkpt>
<trkpt lat="31.7616000" lon="35.4522100">
<ele>-71.400002</ele>
<time>2021-11-09T09:08:23.165Z</time>
</trkpt>
<trkpt lat="31.7622300" lon="35.4523700">
<ele>-71.480003</ele>
<time>2021-11-09T09:08:23.165Z</time>
</trkpt>
<trkpt lat="31.7627500" lon="35.4524000">
<ele>-66.939995</ele>
<time>2021-11-09T09:08:23.165Z</time>
</trkpt>
<trkpt lat="31.7633000" lon="35.4526000">
<ele>-60.449997</ele>
<time>2021-11-09T09:08:23.165Z</time>
</trkpt>
<trkpt lat="31.7639000" lon="35.4526200">
<ele>-60.490002</ele>
<time>2021-11-09T09:08:23.165Z</time>
</trkpt>
<trkpt lat="31.7642600" lon="35.4525500">
<ele>-58.149998</ele>
<time>2021-11-09T09:08:23.165Z</time>
</trkpt>
<trkpt lat="31.7647300" lon="35.4526000">
<ele>-57.399998</ele>
<time>2021-11-09T09:08:23.165Z</time>
</trkpt>
<trkpt lat="31.7653300" lon="35.4525200">
<ele>-56.529999</ele>
<time>2021-11-09T09:08:23.165Z</time>
</trkpt>
<trkpt lat="31.7659300" lon="35.4524400">
<ele>-58.360001</ele>
<time>2021-11-09T09:08:23.165Z</time>
</trkpt>
<trkpt lat="31.7663000" lon="35.4522800">
<ele>-58.490002</ele>
<time>2021-11-09T09:08:23.165Z</time>
</trkpt>
<trkpt lat="31.7669500" lon="35.4524400">
<ele>-58.599998</ele>
<time>2021-11-09T09:08:23.165Z</time>
</trkpt>
<trkpt lat="31.7671800" lon="35.4523800">
<ele>-60.079998</ele>
<time>2021-11-09T09:08:23.165Z</time>
</trkpt>
<trkpt lat="31.7676200" lon="35.4519500">
<ele>-62.980003</ele>
<time>2021-11-09T09:08:23.165Z</time>
</trkpt>
<trkpt lat="31.7683500" lon="35.4515600">
<ele>-71.000000</ele>
<time>2021-11-09T09:08:23.165Z</time>
</trkpt>
<trkpt lat="31.7686200" lon="35.4513200">
<ele>-71.239998</ele>
<time>2021-11-09T09:08:23.165Z</time>
</trkpt>
<trkpt lat="31.7689800" lon="35.4511600">
<ele>-70.849998</ele>
<time>2021-11-09T09:08:23.165Z</time>
</trkpt>
<trkpt lat="31.7691100" lon="35.4507400">
<ele>-66.590004</ele>
<time>2021-11-09T09:08:23.165Z</time>
</trkpt>
<trkpt lat="31.7692200" lon="35.4507100">
<ele>-65.479996</ele>
<time>2021-11-09T09:08:23.165Z</time>
</trkpt>
<trkpt lat="31.7696600" lon="35.4508600">
<ele>-68.540001</ele>
<time>2021-11-09T09:08:23.165Z</time>
</trkpt>
<trkpt lat="31.7700400" lon="35.4505100">
<ele>-67.660004</ele>
<time>2021-11-09T09:08:23.165Z</time>
</trkpt>
<trkpt lat="31.7702000" lon="35.4504600">
<ele>-68.940002</ele>
<time>2021-11-09T09:08:23.165Z</time>
</trkpt>
<trkpt lat="31.7703400" lon="35.4505600">
<ele>-71.650002</ele>
<time>2021-11-09T09:08:23.165Z</time>
</trkpt>
<trkpt lat="31.7705100" lon="35.4508600">
<ele>-71.590004</ele>
<time>2021-11-09T09:08:23.165Z</time>
</trkpt>
<trkpt lat="31.7707400" lon="35.4514400">
<ele>-72.910004</ele>
<time>2021-11-09T09:08:23.165Z</time>
</trkpt>
<trkpt lat="31.7709600" lon="35.4520200">
<ele>-75.220001</ele>
<time>2021-11-09T09:08:23.165Z</time>
</trkpt>
<trkpt lat="31.7708400" lon="35.4515800">
<ele>-73.059998</ele>
<time>2021-11-09T09:08:23.165Z</time>
</trkpt>
<trkpt lat="31.7705400" lon="35.4508900">
<ele>-71.699997</ele>
<time>2021-11-09T09:08:23.165Z</time>
</trkpt>
<trkpt lat="31.7705300" lon="35.4505100">
<ele>-73.830002</ele>
<time>2021-11-09T09:08:23.165Z</time>
</trkpt>
<trkpt lat="31.7704600" lon="35.4504000">
<ele>-72.760002</ele>
<time>2021-11-09T09:08:23.165Z</time>
</trkpt>
<trkpt lat="31.7706500" lon="35.4502600">
<ele>-75.699997</ele>
<time>2021-11-09T09:08:23.165Z</time>
</trkpt>
<trkpt lat="31.7707400" lon="35.4497500">
<ele>-79.090004</ele>
<time>2021-11-09T09:08:23.165Z</time>
</trkpt>
<trkpt lat="31.7712900" lon="35.4493400">
<ele>-90.699997</ele>
<time>2021-11-09T09:08:23.165Z</time>
</trkpt>
<trkpt lat="31.7716900" lon="35.4494500">
<ele>-97.070000</ele>
<time>2021-11-09T09:08:23.165Z</time>
</trkpt>
<trkpt lat="31.7723100" lon="35.4494600">
<ele>-101.280006</ele>
<time>2021-11-09T09:08:23.165Z</time>
</trkpt>
<trkpt lat="31.7727200" lon="35.4496400">
<ele>-110.859993</ele>
<time>2021-11-09T09:08:23.165Z</time>
</trkpt>
<trkpt lat="31.7734100" lon="35.4495400">
<ele>-126.169998</ele>
<time>2021-11-09T09:08:23.165Z</time>
</trkpt>
<trkpt lat="31.7738300" lon="35.4490800">
<ele>-136.699997</ele>
<time>2021-11-09T09:08:23.165Z</time>
</trkpt>
<trkpt lat="31.7738900" lon="35.4488900">
<ele>-135.059998</ele>
<time>2021-11-09T09:08:23.165Z</time>
</trkpt>
<trkpt lat="31.7741200" lon="35.4487000">
<ele>-139.880005</ele>
<time>2021-11-09T09:08:23.165Z</time>
</trkpt>
<trkpt lat="31.7743600" lon="35.4479400">
<ele>-139.800003</ele>
<time>2021-11-09T09:08:23.165Z</time>
</trkpt>
<trkpt lat="31.7744400" lon="35.4478400">
<ele>-141.869995</ele>
<time>2021-11-09T09:08:23.165Z</time>
</trkpt>
<trkpt lat="31.7746900" lon="35.4478100">
<ele>-146.419998</ele>
<time>2021-11-09T09:08:23.165Z</time>
</trkpt>
<trkpt lat="31.7751400" lon="35.4475200">
<ele>-151.059998</ele>
<time>2021-11-09T09:08:23.165Z</time>
</trkpt>
<trkpt lat="31.7753600" lon="35.4475300">
<ele>-153.819992</ele>
<time>2021-11-09T09:08:23.165Z</time>
</trkpt>
<trkpt lat="31.7754000" lon="35.4474700">
<ele>-154.250000</ele>
<time>2021-11-09T09:08:23.165Z</time>
</trkpt>
<trkpt lat="31.7755200" lon="35.4474700">
<ele>-154.389999</ele>
<time>2021-11-09T09:08:23.165Z</time>
</trkpt>
<trkpt lat="31.7757300" lon="35.4473400">
<ele>-156.569992</ele>
<time>2021-11-09T09:08:23.165Z</time>
</trkpt>
<trkpt lat="31.7759700" lon="35.4474100">
<ele>-158.779999</ele>
<time>2021-11-09T09:08:23.165Z</time>
</trkpt>
<trkpt lat="31.7760600" lon="35.4473800">
<ele>-160.600006</ele>
<time>2021-11-09T09:08:23.165Z</time>
</trkpt>
<trkpt lat="31.7760400" lon="35.4474700">
<ele>-160.209991</ele>
<time>2021-11-09T09:08:23.165Z</time>
</trkpt>
<trkpt lat="31.7762400" lon="35.4478700">
<ele>-167.309998</ele>
<time>2021-11-09T09:08:23.165Z</time>
</trkpt>
<trkpt lat="31.7765300" lon="35.4481400">
<ele>-175.149994</ele>
<time>2021-11-09T09:08:23.165Z</time>
</trkpt>
<trkpt lat="31.7766100" lon="35.4486100">
<ele>-169.779999</ele>
<time>2021-11-09T09:08:23.165Z</time>
</trkpt>
<trkpt lat="31.7767800" lon="35.4489500">
<ele>-174.250000</ele>
<time>2021-11-09T09:08:23.165Z</time>
</trkpt>
<trkpt lat="31.7770700" lon="35.4491000">
<ele>-183.750000</ele>
<time>2021-11-09T09:08:23.165Z</time>
</trkpt>
<trkpt lat="31.7772200" lon="35.4491100">
<ele>-187.550003</ele>
<time>2021-11-09T09:08:23.165Z</time>
</trkpt>
<trkpt lat="31.7772300" lon="35.4492000">
<ele>-187.220001</ele>
<time>2021-11-09T09:08:23.165Z</time>
</trkpt>
<trkpt lat="31.7773200" lon="35.4492700">
<ele>-188.390015</ele>
<time>2021-11-09T09:08:23.165Z</time>
</trkpt>
<trkpt lat="31.7774400" lon="35.4497200">
<ele>-189.990005</ele>
<time>2021-11-09T09:08:23.165Z</time>
</trkpt>
<trkpt lat="31.7774700" lon="35.4501400">
<ele>-194.279999</ele>
<time>2021-11-09T09:08:23.165Z</time>
</trkpt>
<trkpt lat="31.7774500" lon="35.4503600">
<ele>-197.899994</ele>
<time>2021-11-09T09:08:23.165Z</time>
</trkpt>
<trkpt lat="31.7773000" lon="35.4506100">
<ele>-208.479996</ele>
<time>2021-11-09T09:08:23.165Z</time>
</trkpt>
<trkpt lat="31.7770400" lon="35.4506700">
<ele>-208.830002</ele>
<time>2021-11-09T09:08:23.165Z</time>
</trkpt>
<trkpt lat="31.7766000" lon="35.4509500">
<ele>-209.320007</ele>
<time>2021-11-09T09:08:23.165Z</time>
</trkpt>
<trkpt lat="31.7762300" lon="35.4512800">
<ele>-219.340012</ele>
<time>2021-11-09T09:08:23.165Z</time>
</trkpt>
<trkpt lat="31.7761200" lon="35.4515600">
<ele>-223.720001</ele>
<time>2021-11-09T09:08:23.165Z</time>
</trkpt>
<trkpt lat="31.7760500" lon="35.4520700">
<ele>-229.339996</ele>
<time>2021-11-09T09:08:23.165Z</time>
</trkpt>
<trkpt lat="31.7761300" lon="35.4522500">
<ele>-230.190002</ele>
<time>2021-11-09T09:08:23.165Z</time>
</trkpt>
<trkpt lat="31.7760800" lon="35.4528400">
<ele>-236.650009</ele>
<time>2021-11-09T09:08:23.165Z</time>
</trkpt>
<trkpt lat="31.7759900" lon="35.4534700">
<ele>-246.710007</ele>
<time>2021-11-09T09:08:23.165Z</time>
</trkpt>
<trkpt lat="31.7758900" lon="35.4540900">
<ele>-251.669998</ele>
<time>2021-11-09T09:08:23.165Z</time>
</trkpt>
<trkpt lat="31.7758000" lon="35.4547200">
<ele>-258.329987</ele>
<time>2021-11-09T09:08:23.165Z</time>
</trkpt>
<trkpt lat="31.7757500" lon="35.4552800">
<ele>-265.130005</ele>
<time>2021-11-09T09:08:23.165Z</time>
</trkpt>
<trkpt lat="31.7757100" lon="35.4558300">
<ele>-270.980011</ele>
<time>2021-11-09T09:08:23.165Z</time>
</trkpt>
<trkpt lat="31.7756600" lon="35.4563900">
<ele>-271.269989</ele>
<time>2021-11-09T09:08:23.165Z</time>
</trkpt>
<trkpt lat="31.7757400" lon="35.4568000">
<ele>-277.630005</ele>
<time>2021-11-09T09:08:23.165Z</time>
</trkpt>
<trkpt lat="31.7757400" lon="35.4571400">
<ele>-279.270020</ele>
<time>2021-11-09T09:08:23.165Z</time>
</trkpt>
<trkpt lat="31.7756300" lon="35.4574500">
<ele>-279.489990</ele>
<time>2021-11-09T09:08:23.165Z</time>
</trkpt>
<trkpt lat="31.7755700" lon="35.4580600">
<ele>-281.309998</ele>
<time>2021-11-09T09:08:23.165Z</time>
</trkpt>
<trkpt lat="31.7755100" lon="35.4586700">
<ele>-290.059998</ele>
<time>2021-11-09T09:08:23.165Z</time>
</trkpt>
<trkpt lat="31.7755500" lon="35.4588200">
<ele>-292.920013</ele>
<time>2021-11-09T09:08:23.165Z</time>
</trkpt>
<trkpt lat="31.7757800" lon="35.4589300">
<ele>-292.829987</ele>
<time>2021-11-09T09:08:23.165Z</time>
</trkpt>
<trkpt lat="31.7763600" lon="35.4589400">
<ele>-287.220001</ele>
<time>2021-11-09T09:08:23.165Z</time>
</trkpt>
<trkpt lat="31.7769300" lon="35.4589500">
<ele>-287.160004</ele>
<time>2021-11-09T09:08:23.165Z</time>
</trkpt>
<trkpt lat="31.7775100" lon="35.4589600">
<ele>-287.360016</ele>
<time>2021-11-09T09:08:23.165Z</time>
</trkpt>
<trkpt lat="31.7783900" lon="35.4589000">
<ele>-278.290009</ele>
<time>2021-11-09T09:08:23.165Z</time>
</trkpt>
<trkpt lat="31.7787700" lon="35.4589200">
<ele>-280.420013</ele>
<time>2021-11-09T09:08:23.165Z</time>
</trkpt>
<trkpt lat="31.7790900" lon="35.4590100">
<ele>-282.190002</ele>
<time>2021-11-09T09:08:23.165Z</time>
</trkpt>
<trkpt lat="31.7796000" lon="35.4589900">
<ele>-278.480011</ele>
<time>2021-11-09T09:08:23.165Z</time>
</trkpt>
<trkpt lat="31.7801000" lon="35.4589600">
<ele>-275.700012</ele>
<time>2021-11-09T09:08:23.165Z</time>
</trkpt>
<trkpt lat="31.7806200" lon="35.4589700">
<ele>-277.929993</ele>
<time>2021-11-09T09:08:23.165Z</time>
</trkpt>
<trkpt lat="31.7811500" lon="35.4589800">
<ele>-281.699982</ele>
<time>2021-11-09T09:08:23.165Z</time>
</trkpt>
<trkpt lat="31.7816700" lon="35.4589900">
<ele>-285.970001</ele>
<time>2021-11-09T09:08:23.165Z</time>
</trkpt>
<trkpt lat="31.7821800" lon="35.4589100">
<ele>-283.269989</ele>
<time>2021-11-09T09:08:23.165Z</time>
</trkpt>
<trkpt lat="31.7826800" lon="35.4588300">
<ele>-284.819977</ele>
<time>2021-11-09T09:08:23.165Z</time>
</trkpt>
<trkpt lat="31.7827600" lon="35.4589000">
<ele>-286.769989</ele>
<time>2021-11-09T09:08:23.165Z</time>
</trkpt>
<trkpt lat="31.7830400" lon="35.4594900">
<ele>-297.319977</ele>
<time>2021-11-09T09:08:23.165Z</time>
</trkpt>
<trkpt lat="31.7832100" lon="35.4595800">
<ele>-301.519989</ele>
<time>2021-11-09T09:08:23.165Z</time>
</trkpt>
<trkpt lat="31.7833800" lon="35.4595900">
<ele>-304.420013</ele>
<time>2021-11-09T09:08:23.165Z</time>
</trkpt>
<trkpt lat="31.7838800" lon="35.4594300">
<ele>-307.700012</ele>
<time>2021-11-09T09:08:23.165Z</time>
</trkpt>
<trkpt lat="31.7839200" lon="35.4593200">
<ele>-307.029999</ele>
<time>2021-11-09T09:08:23.165Z</time>
</trkpt>
<trkpt lat="31.7838900" lon="35.4591400">
<ele>-303.839996</ele>
<time>2021-11-09T09:08:23.165Z</time>
</trkpt>
<trkpt lat="31.7839800" lon="35.4589100">
<ele>-304.799988</ele>
<time>2021-11-09T09:08:23.165Z</time>
</trkpt>
<trkpt lat="31.7842700" lon="35.4587200">
<ele>-311.480011</ele>
<time>2021-11-09T09:08:23.165Z</time>
</trkpt>
<trkpt lat="31.7843400" lon="35.4586200">
<ele>-312.760010</ele>
<time>2021-11-09T09:08:23.165Z</time>
</trkpt>
<trkpt lat="31.7844900" lon="35.4585600">
<ele>-313.489990</ele>
<time>2021-11-09T09:08:23.165Z</time>
</trkpt>
<trkpt lat="31.7845700" lon="35.4585100">
<ele>-311.389984</ele>
<time>2021-11-09T09:08:23.165Z</time>
</trkpt>
<trkpt lat="31.7847800" lon="35.4581500">
<ele>-307.320007</ele>
<time>2021-11-09T09:08:23.165Z</time>
</trkpt>
<trkpt lat="31.7851100" lon="35.4578100">
<ele>-296.250000</ele>
<time>2021-11-09T09:08:23.165Z</time>
</trkpt>
<trkpt lat="31.7853200" lon="35.4576900">
<ele>-288.019989</ele>
<time>2021-11-09T09:08:23.165Z</time>
</trkpt>
<trkpt lat="31.7855400" lon="35.4574100">
<ele>-280.660004</ele>
<time>2021-11-09T09:08:23.165Z</time>
</trkpt>
<trkpt lat="31.7856100" lon="35.4574900">
<ele>-276.709991</ele>
<time>2021-11-09T09:08:23.165Z</time>
</trkpt>
<trkpt lat="31.7857100" lon="35.4580000">
<ele>-274.019989</ele>
<time>2021-11-09T09:08:23.165Z</time>
</trkpt>
<trkpt lat="31.7858500" lon="35.4583100">
<ele>-268.829987</ele>
<time>2021-11-09T09:08:23.165Z</time>
</trkpt>
<trkpt lat="31.7859100" lon="35.4583500">
<ele>-268.260010</ele>
<time>2021-11-09T09:08:23.165Z</time>
</trkpt>
<trkpt lat="31.7861900" lon="35.4581300">
<ele>-267.450012</ele>
<time>2021-11-09T09:08:23.165Z</time>
</trkpt>
<trkpt lat="31.7866700" lon="35.4579400">
<ele>-269.320007</ele>
<time>2021-11-09T09:08:23.165Z</time>
</trkpt>
<trkpt lat="31.7871400" lon="35.4577500">
<ele>-265.389984</ele>
<time>2021-11-09T09:08:23.165Z</time>
</trkpt>
<trkpt lat="31.7876000" lon="35.4576300">
<ele>-262.859985</ele>
<time>2021-11-09T09:08:23.165Z</time>
</trkpt>
<trkpt lat="31.7880600" lon="35.4575200">
<ele>-268.950012</ele>
<time>2021-11-09T09:08:23.165Z</time>
</trkpt>
<trkpt lat="31.7885200" lon="35.4574000">
<ele>-263.529999</ele>
<time>2021-11-09T09:08:23.165Z</time>
</trkpt>
<trkpt lat="31.7889800" lon="35.4572900">
<ele>-261.220001</ele>
<time>2021-11-09T09:08:23.165Z</time>
</trkpt>
<trkpt lat="31.7894400" lon="35.4571700">
<ele>-260.730011</ele>
<time>2021-11-09T09:08:23.165Z</time>
</trkpt>
<trkpt lat="31.7899000" lon="35.4570600">
<ele>-262.899994</ele>
<time>2021-11-09T09:08:23.165Z</time>
</trkpt>
<trkpt lat="31.7903500" lon="35.4569400">
<ele>-263.709991</ele>
<time>2021-11-09T09:08:23.165Z</time>
</trkpt>
<trkpt lat="31.7908100" lon="35.4568300">
<ele>-260.760010</ele>
<time>2021-11-09T09:08:23.165Z</time>
</trkpt>
<trkpt lat="31.7912700" lon="35.4567100">
<ele>-267.269989</ele>
<time>2021-11-09T09:08:23.165Z</time>
</trkpt>
<trkpt lat="31.7917300" lon="35.4566000">
<ele>-267.059998</ele>
<time>2021-11-09T09:08:23.165Z</time>
</trkpt>
<trkpt lat="31.7921900" lon="35.4564800">
<ele>-261.910004</ele>
<time>2021-11-09T09:08:23.165Z</time>
</trkpt>
<trkpt lat="31.7926500" lon="35.4563700">
<ele>-267.019989</ele>
<time>2021-11-09T09:08:23.165Z</time>
</trkpt>
<trkpt lat="31.7931100" lon="35.4562500">
<ele>-265.500000</ele>
<time>2021-11-09T09:08:23.165Z</time>
</trkpt>
<trkpt lat="31.7936300" lon="35.4560500">
<ele>-262.669983</ele>
<time>2021-11-09T09:08:23.165Z</time>
</trkpt>
<trkpt lat="31.7943500" lon="35.4556200">
<ele>-260.110016</ele>
<time>2021-11-09T09:08:23.165Z</time>
</trkpt>
<trkpt lat="31.7947400" lon="35.4553100">
<ele>-259.119995</ele>
<time>2021-11-09T09:08:23.165Z</time>
</trkpt>
<trkpt lat="31.7951300" lon="35.4550100">
<ele>-259.100006</ele>
<time>2021-11-09T09:08:23.165Z</time>
</trkpt>
<trkpt lat="31.7955200" lon="35.4547000">
<ele>-260.660004</ele>
<time>2021-11-09T09:08:23.165Z</time>
</trkpt>
<trkpt lat="31.7959200" lon="35.4544000">
<ele>-257.800018</ele>
<time>2021-11-09T09:08:23.165Z</time>
</trkpt>
<trkpt lat="31.7963100" lon="35.4540900">
<ele>-256.209991</ele>
<time>2021-11-09T09:08:23.165Z</time>
</trkpt>
<trkpt lat="31.7967000" lon="35.4537900">
<ele>-254.360016</ele>
<time>2021-11-09T09:08:23.165Z</time>
</trkpt>
<trkpt lat="31.7970900" lon="35.4534800">
<ele>-254.419998</ele>
<time>2021-11-09T09:08:23.165Z</time>
</trkpt>
<trkpt lat="31.7975000" lon="35.4531700">
<ele>-251.409988</ele>
<time>2021-11-09T09:08:23.165Z</time>
</trkpt>
<trkpt lat="31.7979100" lon="35.4528600">
<ele>-251.110001</ele>
<time>2021-11-09T09:08:23.165Z</time>
</trkpt>
<trkpt lat="31.7983300" lon="35.4525400">
<ele>-250.710007</ele>
<time>2021-11-09T09:08:23.165Z</time>
</trkpt>
<trkpt lat="31.7987400" lon="35.4522300">
<ele>-251.429993</ele>
<time>2021-11-09T09:08:23.165Z</time>
</trkpt>
<trkpt lat="31.7991500" lon="35.4519200">
<ele>-248.309998</ele>
<time>2021-11-09T09:08:23.165Z</time>
</trkpt>
<trkpt lat="31.7993100" lon="35.4518500">
<ele>-247.649994</ele>
<time>2021-11-09T09:08:23.165Z</time>
</trkpt>
<trkpt lat="31.7997100" lon="35.4521000">
<ele>-249.500015</ele>
<time>2021-11-09T09:08:23.165Z</time>
</trkpt>
<trkpt lat="31.7998600" lon="35.4521200">
<ele>-249.500015</ele>
<time>2021-11-09T09:08:23.165Z</time>
</trkpt>
<trkpt lat="31.7998700" lon="35.4524000">
<ele>-249.770004</ele>
<time>2021-11-09T09:08:23.165Z</time>
</trkpt>
<trkpt lat="31.8000300" lon="35.4526200">
<ele>-247.810013</ele>
<time>2021-11-09T09:08:23.165Z</time>
</trkpt>
<trkpt lat="31.8004600" lon="35.4526300">
<ele>-245.370010</ele>
<time>2021-11-09T09:08:23.165Z</time>
</trkpt>
<trkpt lat="31.8006800" lon="35.4528000">
<ele>-244.519989</ele>
<time>2021-11-09T09:08:23.165Z</time>
</trkpt>
<trkpt lat="31.8008600" lon="35.4530900">
<ele>-242.979996</ele>
<time>2021-11-09T09:08:23.165Z</time>
</trkpt>
<trkpt lat="31.8008900" lon="35.4534400">
<ele>-242.869995</ele>
<time>2021-11-09T09:08:23.165Z</time>
</trkpt>
<trkpt lat="31.8010100" lon="35.4534800">
<ele>-244.139999</ele>
<time>2021-11-09T09:08:23.165Z</time>
</trkpt>
<trkpt lat="31.8010200" lon="35.4535400">
<ele>-244.589996</ele>
<time>2021-11-09T09:08:23.165Z</time>
</trkpt>
</trkseg>
</trk>
</gpx>
